2016 Cux-Wetter.de -Die Nutzung der Wetterdaten nur mit ausdrcklicher Genehmigung
Wetterdaten: Freitag, 08.06.2018
Datum Zeit Temp. A. Feuchte A. Luftdruck Regen Wind Richtung Richtung Sonnenschein Solar Taupunkt Windchill Windben
08.06.2018 00:00 18,9 C 74 % 1013,4 hPa 0,0 l/m 0,7 km/h (0 Bft) O-NO 65 0 min 0 W/m 14,2 C 18,9 C 3,2 km/h (1 Bft)
08.06.2018 00:03 18,9 C 74 % 1013,4 hPa 0,0 l/m 0,0 km/h (0 Bft) O-NO 65 0 min 0 W/m 14,2 C 18,9 C 0,0 km/h (0 Bft)
08.06.2018 00:06 18,8 C 75 % 1013,4 hPa 0,0 l/m 0,0 km/h (0 Bft) O-NO 65 0 min 0 W/m 14,3 C 18,8 C 0,0 km/h (0 Bft)
08.06.2018 00:09 18,8 C 75 % 1013,4 hPa 0,0 l/m 0,0 km/h (0 Bft) O-NO 78 0 min 0 W/m 14,3 C 18,8 C 0,0 km/h (0 Bft)
08.06.2018 00:12 18,7 C 75 % 1013,5 hPa 0,0 l/m 0,0 km/h (0 Bft) O-NO 78 0 min 0 W/m 14,2 C 18,7 C 0,0 km/h (0 Bft)
08.06.2018 00:15 18,7 C 76 % 1013,5 hPa 0,0 l/m 0,3 km/h (0 Bft) O-NO 78 0 min 0 W/m 14,4 C 18,7 C 3,2 km/h (1 Bft)
08.06.2018 00:18 18,6 C 76 % 1013,5 hPa 0,0 l/m 0,0 km/h (0 Bft) O-NO 78 0 min 0 W/m 14,3 C 18,6 C 1,6 km/h (1 Bft)
08.06.2018 00:21 18,6 C 76 % 1013,5 hPa 0,0 l/m 1,2 km/h (1 Bft) O-NO 77 0 min 0 W/m 14,3 C 18,6 C 4,8 km/h (1 Bft)
08.06.2018 00:24 18,4 C 77 % 1013,4 hPa 0,0 l/m 0,6 km/h (0 Bft) O-NO 77 0 min 0 W/m 14,3 C 18,4 C 1,6 km/h (1 Bft)
08.06.2018 00:27 18,3 C 77 % 1013,4 hPa 0,0 l/m 0,8 km/h (0 Bft) O-NO 77 0 min 0 W/m 14,2 C 18,3 C 3,2 km/h (1 Bft)
08.06.2018 00:30 18,3 C 78 % 1013,4 hPa 0,0 l/m 0,5 km/h (0 Bft) O-NO 77 0 min 0 W/m 14,4 C 18,3 C 3,2 km/h (1 Bft)
08.06.2018 00:33 18,3 C 78 % 1013,4 hPa 0,0 l/m 0,2 km/h (0 Bft) O-NO 77 0 min 0 W/m 14,4 C 18,3 C 1,6 km/h (1 Bft)
08.06.2018 00:36 18,2 C 78 % 1013,4 hPa 0,0 l/m 0,5 km/h (0 Bft) O-NO 77 0 min 0 W/m 14,3 C 18,2 C 4,8 km/h (1 Bft)
08.06.2018 00:39 18,2 C 78 % 1013,3 hPa 0,0 l/m 0,4 km/h (0 Bft) NO 53 0 min 0 W/m 14,3 C 18,2 C 3,2 km/h (1 Bft)
08.06.2018 00:42 18,1 C 78 % 1013,4 hPa 0,0 l/m 0,0 km/h (0 Bft) NO 53 0 min 0 W/m 14,2 C 18,1 C 0,0 km/h (0 Bft)
08.06.2018 00:45 18,1 C 77 % 1013,3 hPa 0,0 l/m 0,8 km/h (0 Bft) NO 54 0 min 0 W/m 14,0 C 18,1 C 3,2 km/h (1 Bft)
08.06.2018 00:48 18,1 C 77 % 1013,3 hPa 0,0 l/m 0,0 km/h (0 Bft) NO 54 0 min 0 W/m 14,0 C 18,1 C 0,0 km/h (0 Bft)
08.06.2018 00:51 18,0 C 77 % 1013,3 hPa 0,0 l/m 0,0 km/h (0 Bft) NO 54 0 min 0 W/m 13,9 C 18,0 C 0,0 km/h (0 Bft)
08.06.2018 00:54 18,0 C 76 % 1013,4 hPa 0,0 l/m 0,0 km/h (0 Bft) NO 54 0 min 0 W/m 13,7 C 18,0 C 0,0 km/h (0 Bft)
08.06.2018 00:57 18,0 C 76 % 1013,3 hPa 0,0 l/m 0,0 km/h (0 Bft) NO 54 0 min 0 W/m 13,7 C 18,0 C 0,0 km/h (0 Bft)
08.06.2018 01:00 17,9 C 75 % 1013,3 hPa 0,0 l/m 0,0 km/h (0 Bft) NO 54 0 min 0 W/m 13,4 C 17,9 C 0,0 km/h (0 Bft)
08.06.2018 01:03 17,9 C 75 % 1013,3 hPa 0,0 l/m 0,0 km/h (0 Bft) NO 54 0 min 0 W/m 13,4 C 17,9 C 0,0 km/h (0 Bft)
08.06.2018 01:06 18,0 C 75 % 1013,4 hPa 0,0 l/m 0,0 km/h (0 Bft) NO 54 0 min 0 W/m 13,5 C 18,0 C 0,0 km/h (0 Bft)
08.06.2018 01:09 18,0 C 74 % 1013,4 hPa 0,0 l/m 0,0 km/h (0 Bft) NO 54 0 min 0 W/m 13,3 C 18,0 C 0,0 km/h (0 Bft)
08.06.2018 01:12 18,0 C 75 % 1013,3 hPa 0,0 l/m 0,0 km/h (0 Bft) NO 54 0 min 0 W/m 13,5 C 18,0 C 0,0 km/h (0 Bft)
08.06.2018 01:15 17,9 C 75 % 1013,3 hPa 0,0 l/m 0,0 km/h (0 Bft) NO 54 0 min 0 W/m 13,4 C 17,9 C 0,0 km/h (0 Bft)
08.06.2018 01:18 17,8 C 76 % 1013,3 hPa 0,0 l/m 0,0 km/h (0 Bft) NO 54 0 min 0 W/m 13,5 C 17,8 C 0,0 km/h (0 Bft)
08.06.2018 01:21 17,8 C 77 % 1013,3 hPa 0,0 l/m 0,5 km/h (0 Bft) O-NO 58 0 min 0 W/m 13,7 C 17,8 C 3,2 km/h (1 Bft)
08.06.2018 01:24 17,7 C 77 % 1013,2 hPa 0,0 l/m 0,3 km/h (0 Bft) O-NO 58 0 min 0 W/m 13,6 C 17,7 C 1,6 km/h (1 Bft)
08.06.2018 01:27 17,7 C 77 % 1013,2 hPa 0,0 l/m 0,3 km/h (0 Bft) O-NO 58 0 min 0 W/m 13,6 C 17,7 C 1,6 km/h (1 Bft)
08.06.2018 01:30 17,6 C 78 % 1013,2 hPa 0,0 l/m 0,2 km/h (0 Bft) O-NO 58 0 min 0 W/m 13,7 C 17,6 C 1,6 km/h (1 Bft)
08.06.2018 01:33 17,6 C 79 % 1013,1 hPa 0,0 l/m 0,1 km/h (0 Bft) O-NO 58 0 min 0 W/m 13,9 C 17,6 C 1,6 km/h (1 Bft)
08.06.2018 01:36 17,6 C 79 % 1013,1 hPa 0,0 l/m 0,0 km/h (0 Bft) O-NO 58 0 min 0 W/m 13,9 C 17,6 C 0,0 km/h (0 Bft)
08.06.2018 01:39 17,5 C 80 % 1013,0 hPa 0,0 l/m 0,0 km/h (0 Bft) O-NO 58 0 min 0 W/m 14,0 C 17,5 C 0,0 km/h (0 Bft)
08.06.2018 01:42 17,5 C 80 % 1013,1 hPa 0,0 l/m 0,5 km/h (0 Bft) O-NO 58 0 min 0 W/m 14,0 C 17,5 C 3,2 km/h (1 Bft)
08.06.2018 01:45 17,4 C 81 % 1013,1 hPa 0,0 l/m 0,1 km/h (0 Bft) O-NO 58 0 min 0 W/m 14,1 C 17,4 C 1,6 km/h (1 Bft)
08.06.2018 01:48 17,4 C 81 % 1013,1 hPa 0,0 l/m 0,1 km/h (0 Bft) O-NO 58 0 min 0 W/m 14,1 C 17,4 C 1,6 km/h (1 Bft)
08.06.2018 01:51 17,3 C 82 % 1013,0 hPa 0,0 l/m 0,1 km/h (0 Bft) O-NO 58 0 min 0 W/m 14,2 C 17,3 C 1,6 km/h (1 Bft)
08.06.2018 01:54 17,3 C 82 % 1013,0 hPa 0,0 l/m 0,0 km/h (0 Bft) O-NO 58 0 min 0 W/m 14,2 C 17,3 C 0,0 km/h (0 Bft)
08.06.2018 01:57 17,3 C 82 % 1013,0 hPa 0,0 l/m 0,2 km/h (0 Bft) O-NO 58 0 min 0 W/m 14,2 C 17,3 C 1,6 km/h (1 Bft)
08.06.2018 02:00 17,3 C 82 % 1013,1 hPa 0,0 l/m 0,1 km/h (0 Bft) O-NO 58 0 min 0 W/m 14,2 C 17,3 C 1,6 km/h (1 Bft)
08.06.2018 02:03 17,2 C 83 % 1013,1 hPa 0,0 l/m 0,0 km/h (0 Bft) O-NO 58 0 min 0 W/m 14,3 C 17,2 C 0,0 km/h (0 Bft)
08.06.2018 02:06 17,2 C 83 % 1013,0 hPa 0,0 l/m 0,0 km/h (0 Bft) O-NO 58 0 min 0 W/m 14,3 C 17,2 C 0,0 km/h (0 Bft)
08.06.2018 02:09 17,1 C 83 % 1013,0 hPa 0,0 l/m 0,0 km/h (0 Bft) O-NO 58 0 min 0 W/m 14,2 C 17,1 C 0,0 km/h (0 Bft)
08.06.2018 02:12 17,1 C 83 % 1013,0 hPa 0,0 l/m 0,0 km/h (0 Bft) O-NO 58 0 min 0 W/m 14,2 C 17,1 C 0,0 km/h (0 Bft)
08.06.2018 02:15 17,1 C 83 % 1013,1 hPa 0,0 l/m 0,0 km/h (0 Bft) O-NO 58 0 min 0 W/m 14,2 C 17,1 C 0,0 km/h (0 Bft)
08.06.2018 02:18 17,0 C 83 % 1013,0 hPa 0,0 l/m 0,0 km/h (0 Bft) O-NO 58 0 min 0 W/m 14,1 C 17,0 C 0,0 km/h (0 Bft)
08.06.2018 02:21 17,0 C 83 % 1013,0 hPa 0,0 l/m 0,0 km/h (0 Bft) O-NO 58 0 min 0 W/m 14,1 C 17,0 C 0,0 km/h (0 Bft)
08.06.2018 02:24 16,9 C 82 % 1013,0 hPa 0,0 l/m 0,0 km/h (0 Bft) O-NO 58 0 min 0 W/m 13,8 C 16,9 C 0,0 km/h (0 Bft)
08.06.2018 02:27 16,9 C 82 % 1013,0 hPa 0,0 l/m 0,0 km/h (0 Bft) O-NO 58 0 min 0 W/m 13,8 C 16,9 C 0,0 km/h (0 Bft)
08.06.2018 02:30 16,9 C 82 % 1013,0 hPa 0,0 l/m 0,0 km/h (0 Bft) O-NO 58 0 min 0 W/m 13,8 C 16,9 C 0,0 km/h (0 Bft)
08.06.2018 02:33 16,8 C 82 % 1013,0 hPa 0,0 l/m 0,0 km/h (0 Bft) O-NO 58 0 min 0 W/m 13,7 C 16,8 C 0,0 km/h (0 Bft)
08.06.2018 02:36 16,8 C 83 % 1013,0 hPa 0,0 l/m 0,0 km/h (0 Bft) O-NO 58 0 min 0 W/m 13,9 C 16,8 C 0,0 km/h (0 Bft)
08.06.2018 02:39 16,8 C 82 % 1013,0 hPa 0,0 l/m 0,0 km/h (0 Bft) O-NO 58 0 min 0 W/m 13,7 C 16,8 C 0,0 km/h (0 Bft)
08.06.2018 02:42 16,7 C 82 % 1013,0 hPa 0,0 l/m 0,0 km/h (0 Bft) O-NO 58 0 min 0 W/m 13,6 C 16,7 C 0,0 km/h (0 Bft)
08.06.2018 02:45 16,7 C 83 % 1013,0 hPa 0,0 l/m 0,1 km/h (0 Bft) O-NO 58 0 min 0 W/m 13,8 C 16,7 C 1,6 km/h (1 Bft)
08.06.2018 02:48 16,7 C 83 % 1013,0 hPa 0,0 l/m 0,4 km/h (0 Bft) O-NO 58 0 min 0 W/m 13,8 C 16,7 C 1,6 km/h (1 Bft)
08.06.2018 02:51 16,7 C 83 % 1013,0 hPa 0,0 l/m 0,0 km/h (0 Bft) O-NO 58 0 min 0 W/m 13,8 C 16,7 C 1,6 km/h (1 Bft)
08.06.2018 02:54 16,6 C 83 % 1013,0 hPa 0,0 l/m 0,0 km/h (0 Bft) O-NO 58 0 min 0 W/m 13,7 C 16,6 C 0,0 km/h (0 Bft)
08.06.2018 02:57 16,6 C 83 % 1012,9 hPa 0,0 l/m 0,2 km/h (0 Bft) O-NO 58 0 min 0 W/m 13,7 C 16,6 C 1,6 km/h (1 Bft)
08.06.2018 03:00 16,6 C 83 % 1012,9 hPa 0,0 l/m 0,2 km/h (0 Bft) O-NO 58 0 min 0 W/m 13,7 C 16,6 C 1,6 km/h (1 Bft)
08.06.2018 03:03 16,6 C 83 % 1012,9 hPa 0,0 l/m 0,1 km/h (0 Bft) O-NO 58 0 min 0 W/m 13,7 C 16,6 C 1,6 km/h (1 Bft)
08.06.2018 03:06 16,6 C 83 % 1012,8 hPa 0,0 l/m 0,1 km/h (0 Bft) O-NO 58 0 min 0 W/m 13,7 C 16,6 C 1,6 km/h (1 Bft)
08.06.2018 03:09 16,6 C 83 % 1012,8 hPa 0,0 l/m 0,0 km/h (0 Bft) O-NO 58 0 min 0 W/m 13,7 C 16,6 C 1,6 km/h (1 Bft)
08.06.2018 03:12 16,6 C 82 % 1012,8 hPa 0,0 l/m 0,1 km/h (0 Bft) O-NO 58 0 min 0 W/m 13,5 C 16,6 C 1,6 km/h (1 Bft)
08.06.2018 03:15 16,5 C 82 % 1012,8 hPa 0,0 l/m 0,1 km/h (0 Bft) O-NO 58 0 min 0 W/m 13,4 C 16,5 C 1,6 km/h (1 Bft)
08.06.2018 03:18 16,5 C 82 % 1012,8 hPa 0,0 l/m 0,2 km/h (0 Bft) O-NO 58 0 min 0 W/m 13,4 C 16,5 C 1,6 km/h (1 Bft)
08.06.2018 03:21 16,4 C 82 % 1012,8 hPa 0,0 l/m 0,0 km/h (0 Bft) O-NO 58 0 min 0 W/m 13,3 C 16,4 C 0,0 km/h (0 Bft)
08.06.2018 03:24 16,4 C 82 % 1012,8 hPa 0,0 l/m 0,0 km/h (0 Bft) O-NO 58 0 min 0 W/m 13,3 C 16,4 C 0,0 km/h (0 Bft)
08.06.2018 03:27 16,4 C 82 % 1012,8 hPa 0,0 l/m 0,2 km/h (0 Bft) O-NO 58 0 min 0 W/m 13,3 C 16,4 C 1,6 km/h (1 Bft)
08.06.2018 03:30 16,4 C 81 % 1012,7 hPa 0,0 l/m 0,0 km/h (0 Bft) O-NO 58 0 min 0 W/m 13,1 C 16,4 C 0,0 km/h (0 Bft)
08.06.2018 03:33 16,4 C 81 % 1012,7 hPa 0,0 l/m 0,6 km/h (0 Bft) O-NO 58 0 min 0 W/m 13,1 C 16,4 C 1,6 km/h (1 Bft)
08.06.2018 03:36 16,4 C 81 % 1012,7 hPa 0,0 l/m 0,8 km/h (0 Bft) O-NO 58 0 min 0 W/m 13,1 C 16,4 C 3,2 km/h (1 Bft)
08.06.2018 03:39 16,4 C 80 % 1012,7 hPa 0,0 l/m 0,1 km/h (0 Bft) O-NO 58 0 min 0 W/m 12,9 C 16,4 C 1,6 km/h (1 Bft)
08.06.2018 03:42 16,3 C 80 % 1012,6 hPa 0,0 l/m 0,0 km/h (0 Bft) O-NO 58 0 min 0 W/m 12,8 C 16,3 C 0,0 km/h (0 Bft)
08.06.2018 03:45 16,2 C 80 % 1012,7 hPa 0,0 l/m 0,0 km/h (0 Bft) O-NO 58 0 min 0 W/m 12,7 C 16,2 C 0,0 km/h (0 Bft)
08.06.2018 03:48 16,2 C 80 % 1012,7 hPa 0,0 l/m 0,0 km/h (0 Bft) O-NO 58 0 min 0 W/m 12,7 C 16,2 C 0,0 km/h (0 Bft)
08.06.2018 03:51 16,2 C 81 % 1012,7 hPa 0,0 l/m 0,0 km/h (0 Bft) O-NO 58 0 min 0 W/m 12,9 C 16,2 C 0,0 km/h (0 Bft)
08.06.2018 03:54 16,2 C 81 % 1012,7 hPa 0,0 l/m 0,0 km/h (0 Bft) O-NO 58 0 min 0 W/m 12,9 C 16,2 C 0,0 km/h (0 Bft)
08.06.2018 03:57 16,3 C 80 % 1012,6 hPa 0,0 l/m 0,0 km/h (0 Bft) O-NO 58 0 min 0 W/m 12,8 C 16,3 C 0,0 km/h (0 Bft)
08.06.2018 04:00 16,3 C 81 % 1012,6 hPa 0,0 l/m 0,0 km/h (0 Bft) O-NO 58 0 min 0 W/m 13,0 C 16,3 C 0,0 km/h (0 Bft)
08.06.2018 04:03 16,2 C 81 % 1012,7 hPa 0,0 l/m 0,0 km/h (0 Bft) O-NO 58 0 min 0 W/m 12,9 C 16,2 C 0,0 km/h (0 Bft)
08.06.2018 04:06 16,2 C 81 % 1012,6 hPa 0,0 l/m 0,0 km/h (0 Bft) O-NO 58 0 min 0 W/m 12,9 C 16,2 C 0,0 km/h (0 Bft)
08.06.2018 04:09 16,2 C 81 % 1012,6 hPa 0,0 l/m 0,0 km/h (0 Bft) O-NO 58 0 min 0 W/m 12,9 C 16,2 C 0,0 km/h (0 Bft)
08.06.2018 04:12 16,2 C 81 % 1012,6 hPa 0,0 l/m 0,0 km/h (0 Bft) O-NO 58 0 min 0 W/m 12,9 C 16,2 C 0,0 km/h (0 Bft)
08.06.2018 04:15 16,2 C 82 % 1012,6 hPa 0,0 l/m 0,0 km/h (0 Bft) O-NO 58 0 min 0 W/m 13,1 C 16,2 C 0,0 km/h (0 Bft)
08.06.2018 04:18 16,1 C 82 % 1012,6 hPa 0,0 l/m 0,0 km/h (0 Bft) O-NO 58 0 min 0 W/m 13,0 C 16,1 C 0,0 km/h (0 Bft)
08.06.2018 04:21 15,9 C 82 % 1012,6 hPa 0,0 l/m 0,0 km/h (0 Bft) O-NO 58 0 min 0 W/m 12,8 C 15,9 C 0,0 km/h (0 Bft)
08.06.2018 04:24 15,8 C 82 % 1012,6 hPa 0,0 l/m 0,0 km/h (0 Bft) O-NO 58 0 min 0 W/m 12,7 C 15,8 C 0,0 km/h (0 Bft)
08.06.2018 04:27 15,6 C 83 % 1012,6 hPa 0,0 l/m 0,0 km/h (0 Bft) O-NO 58 0 min 0 W/m 12,7 C 15,6 C 0,0 km/h (0 Bft)
08.06.2018 04:30 15,6 C 83 % 1012,6 hPa 0,0 l/m 0,0 km/h (0 Bft) O-NO 58 0 min 0 W/m 12,7 C 15,6 C 0,0 km/h (0 Bft)
08.06.2018 04:33 15,4 C 83 % 1012,6 hPa 0,0 l/m 0,0 km/h (0 Bft) O-NO 58 0 min 0 W/m 12,5 C 15,4 C 0,0 km/h (0 Bft)
08.06.2018 04:36 15,4 C 84 % 1012,6 hPa 0,0 l/m 0,0 km/h (0 Bft) O-NO 58 0 min 0 W/m 12,7 C 15,4 C 0,0 km/h (0 Bft)
08.06.2018 04:39 15,4 C 84 % 1012,5 hPa 0,0 l/m 0,0 km/h (0 Bft) O-NO 58 0 min 0 W/m 12,7 C 15,4 C 0,0 km/h (0 Bft)
08.06.2018 04:42 15,4 C 84 % 1012,6 hPa 0,0 l/m 0,0 km/h (0 Bft) O-NO 58 0 min 0 W/m 12,7 C 15,4 C 0,0 km/h (0 Bft)
08.06.2018 04:45 15,2 C 83 % 1012,6 hPa 0,0 l/m 0,0 km/h (0 Bft) O-NO 58 0 min 0 W/m 12,3 C 15,2 C 0,0 km/h (0 Bft)
08.06.2018 04:48 15,1 C 84 % 1012,7 hPa 0,0 l/m 0,0 km/h (0 Bft) O-NO 58 0 min 0 W/m 12,4 C 15,1 C 0,0 km/h (0 Bft)
08.06.2018 04:51 15,0 C 85 % 1012,6 hPa 0,0 l/m 0,0 km/h (0 Bft) O-NO 58 0 min 0 W/m 12,5 C 15,0 C 0,0 km/h (0 Bft)
08.06.2018 04:54 15,0 C 85 % 1012,6 hPa 0,0 l/m 0,0 km/h (0 Bft) O-NO 58 0 min 0 W/m 12,5 C 15,0 C 0,0 km/h (0 Bft)
08.06.2018 04:57 15,0 C 85 % 1012,7 hPa 0,0 l/m 0,0 km/h (0 Bft) O-NO 58 0 min 0 W/m 12,5 C 15,0 C 0,0 km/h (0 Bft)
08.06.2018 05:00 14,9 C 86 % 1012,7 hPa 0,0 l/m 0,0 km/h (0 Bft) O-NO 58 0 min 5 W/m 12,6 C 14,9 C 0,0 km/h (0 Bft)
08.06.2018 05:03 14,9 C 86 % 1012,7 hPa 0,0 l/m 0,0 km/h (0 Bft) O-NO 58 0 min 5 W/m 12,6 C 14,9 C 0,0 km/h (0 Bft)
08.06.2018 05:06 14,9 C 86 % 1012,6 hPa 0,0 l/m 0,0 km/h (0 Bft) O-NO 58 0 min 5 W/m 12,6 C 14,9 C 0,0 km/h (0 Bft)
08.06.2018 05:09 15,0 C 87 % 1012,7 hPa 0,0 l/m 0,0 km/h (0 Bft) O-NO 58 0 min 7 W/m 12,9 C 15,0 C 0,0 km/h (0 Bft)
08.06.2018 05:12 15,1 C 87 % 1012,7 hPa 0,0 l/m 0,0 km/h (0 Bft) O-NO 58 0 min 7 W/m 13,0 C 15,1 C 0,0 km/h (0 Bft)
08.06.2018 05:15 15,1 C 87 % 1012,7 hPa 0,0 l/m 0,0 km/h (0 Bft) O-NO 58 0 min 9 W/m 13,0 C 15,1 C 0,0 km/h (0 Bft)
08.06.2018 05:18 15,1 C 87 % 1012,7 hPa 0,0 l/m 0,0 km/h (0 Bft) O-NO 58 0 min 11 W/m 13,0 C 15,1 C 0,0 km/h (0 Bft)
08.06.2018 05:21 15,1 C 87 % 1012,7 hPa 0,0 l/m 0,0 km/h (0 Bft) O-NO 58 0 min 11 W/m 13,0 C 15,1 C 0,0 km/h (0 Bft)
08.06.2018 05:24 15,1 C 87 % 1012,7 hPa 0,0 l/m 0,0 km/h (0 Bft) O-NO 58 0 min 12 W/m 13,0 C 15,1 C 0,0 km/h (0 Bft)
08.06.2018 05:27 15,1 C 87 % 1012,7 hPa 0,0 l/m 0,0 km/h (0 Bft) O-NO 58 0 min 12 W/m 13,0 C 15,1 C 0,0 km/h (0 Bft)
08.06.2018 05:30 15,2 C 87 % 1012,7 hPa 0,0 l/m 0,0 km/h (0 Bft) O-NO 58 0 min 14 W/m 13,0 C 15,2 C 0,0 km/h (0 Bft)
08.06.2018 05:33 15,2 C 87 % 1012,7 hPa 0,0 l/m 0,0 km/h (0 Bft) O-NO 58 0 min 16 W/m 13,0 C 15,2 C 0,0 km/h (0 Bft)
08.06.2018 05:36 15,2 C 87 % 1012,8 hPa 0,0 l/m 0,0 km/h (0 Bft) O-NO 58 0 min 16 W/m 13,0 C 15,2 C 0,0 km/h (0 Bft)
08.06.2018 05:39 15,1 C 87 % 1012,8 hPa 0,0 l/m 0,0 km/h (0 Bft) O-NO 58 0 min 12 W/m 13,0 C 15,1 C 0,0 km/h (0 Bft)
08.06.2018 05:42 15,2 C 87 % 1012,8 hPa 0,0 l/m 0,0 km/h (0 Bft) O-NO 58 0 min 19 W/m 13,0 C 15,2 C 0,0 km/h (0 Bft)
08.06.2018 05:45 15,2 C 87 % 1012,9 hPa 0,0 l/m 0,0 km/h (0 Bft) O-NO 58 0 min 21 W/m 13,0 C 15,2 C 0,0 km/h (0 Bft)
08.06.2018 05:48 15,3 C 88 % 1012,8 hPa 0,0 l/m 0,0 km/h (0 Bft) O-NO 58 0 min 23 W/m 13,3 C 15,3 C 0,0 km/h (0 Bft)
08.06.2018 05:51 15,3 C 88 % 1012,8 hPa 0,0 l/m 0,0 km/h (0 Bft) O-NO 58 0 min 25 W/m 13,3 C 15,3 C 0,0 km/h (0 Bft)
08.06.2018 05:54 15,4 C 88 % 1012,8 hPa 0,0 l/m 0,0 km/h (0 Bft) O-NO 58 0 min 25 W/m 13,4 C 15,4 C 0,0 km/h (0 Bft)
08.06.2018 05:57 15,4 C 87 % 1012,8 hPa 0,0 l/m 0,0 km/h (0 Bft) O-NO 58 0 min 25 W/m 13,2 C 15,4 C 0,0 km/h (0 Bft)
08.06.2018 06:00 15,4 C 88 % 1012,8 hPa 0,0 l/m 0,0 km/h (0 Bft) O-NO 58 0 min 26 W/m 13,4 C 15,4 C 0,0 km/h (0 Bft)
08.06.2018 06:03 15,5 C 87 % 1012,8 hPa 0,0 l/m 0,0 km/h (0 Bft) O-NO 58 0 min 28 W/m 13,3 C 15,5 C 0,0 km/h (0 Bft)
08.06.2018 06:06 15,5 C 88 % 1012,7 hPa 0,0 l/m 0,0 km/h (0 Bft) O-NO 58 0 min 21 W/m 13,5 C 15,5 C 0,0 km/h (0 Bft)
08.06.2018 06:09 15,6 C 88 % 1012,7 hPa 0,0 l/m 0,0 km/h (0 Bft) O-NO 58 0 min 28 W/m 13,6 C 15,6 C 0,0 km/h (0 Bft)
08.06.2018 06:12 15,7 C 88 % 1012,7 hPa 0,0 l/m 0,0 km/h (0 Bft) O-NO 58 0 min 28 W/m 13,7 C 15,7 C 0,0 km/h (0 Bft)
08.06.2018 06:15 15,8 C 88 % 1012,7 hPa 0,0 l/m 0,0 km/h (0 Bft) O-NO 58 0 min 30 W/m 13,8 C 15,8 C 0,0 km/h (0 Bft)
08.06.2018 06:18 15,8 C 88 % 1012,7 hPa 0,0 l/m 0,0 km/h (0 Bft) O-NO 58 0 min 30 W/m 13,8 C 15,8 C 0,0 km/h (0 Bft)
08.06.2018 06:21 15,8 C 88 % 1012,7 hPa 0,0 l/m 0,0 km/h (0 Bft) O-NO 58 0 min 30 W/m 13,8 C 15,8 C 0,0 km/h (0 Bft)
08.06.2018 06:24 15,9 C 88 % 1012,7 hPa 0,0 l/m 0,0 km/h (0 Bft) O-NO 58 0 min 32 W/m 13,9 C 15,9 C 0,0 km/h (0 Bft)
08.06.2018 06:27 16,0 C 88 % 1012,7 hPa 0,0 l/m 0,0 km/h (0 Bft) O-NO 58 0 min 32 W/m 14,0 C 16,0 C 0,0 km/h (0 Bft)
08.06.2018 06:30 16,1 C 88 % 1012,7 hPa 0,0 l/m 0,0 km/h (0 Bft) O-NO 58 0 min 32 W/m 14,1 C 16,1 C 0,0 km/h (0 Bft)
08.06.2018 06:33 16,1 C 88 % 1012,7 hPa 0,0 l/m 0,0 km/h (0 Bft) O-NO 58 0 min 32 W/m 14,1 C 16,1 C 0,0 km/h (0 Bft)
08.06.2018 06:36 16,2 C 88 % 1012,7 hPa 0,0 l/m 0,0 km/h (0 Bft) O-NO 58 0 min 30 W/m 14,2 C 16,2 C 0,0 km/h (0 Bft)
08.06.2018 06:39 16,2 C 88 % 1012,7 hPa 0,0 l/m 0,0 km/h (0 Bft) O-NO 58 0 min 30 W/m 14,2 C 16,2 C 0,0 km/h (0 Bft)
08.06.2018 06:42 16,2 C 88 % 1012,8 hPa 0,0 l/m 0,0 km/h (0 Bft) O-NO 58 0 min 28 W/m 14,2 C 16,2 C 0,0 km/h (0 Bft)
08.06.2018 06:45 16,3 C 88 % 1012,8 hPa 0,0 l/m 0,0 km/h (0 Bft) O-NO 58 0 min 28 W/m 14,3 C 16,3 C 0,0 km/h (0 Bft)
08.06.2018 06:48 16,3 C 88 % 1012,8 hPa 0,0 l/m 0,0 km/h (0 Bft) O-NO 58 0 min 28 W/m 14,3 C 16,3 C 0,0 km/h (0 Bft)
08.06.2018 06:51 16,3 C 88 % 1012,7 hPa 0,0 l/m 0,0 km/h (0 Bft) O-NO 57 0 min 28 W/m 14,3 C 16,3 C 0,0 km/h (0 Bft)
08.06.2018 06:54 16,3 C 88 % 1012,8 hPa 0,0 l/m 0,0 km/h (0 Bft) N 9 0 min 26 W/m 14,3 C 16,3 C 0,0 km/h (0 Bft)
08.06.2018 06:57 16,4 C 88 % 1012,8 hPa 0,0 l/m 0,0 km/h (0 Bft) N 5 0 min 28 W/m 14,4 C 16,4 C 0,0 km/h (0 Bft)
08.06.2018 07:00 16,4 C 88 % 1012,8 hPa 0,0 l/m 0,0 km/h (0 Bft) N 5 0 min 28 W/m 14,4 C 16,4 C 0,0 km/h (0 Bft)
08.06.2018 07:03 16,5 C 88 % 1012,9 hPa 0,0 l/m 0,0 km/h (0 Bft) N 5 0 min 28 W/m 14,5 C 16,5 C 0,0 km/h (0 Bft)
08.06.2018 07:06 16,5 C 88 % 1012,9 hPa 0,0 l/m 0,0 km/h (0 Bft) N 5 0 min 26 W/m 14,5 C 16,5 C 0,0 km/h (0 Bft)
08.06.2018 07:09 16,6 C 88 % 1012,9 hPa 0,0 l/m 0,0 km/h (0 Bft) NW 311 0 min 30 W/m 14,6 C 16,6 C 0,0 km/h (0 Bft)
08.06.2018 07:12 16,8 C 88 % 1012,9 hPa 0,0 l/m 0,0 km/h (0 Bft) NW 311 0 min 32 W/m 14,8 C 16,8 C 0,0 km/h (0 Bft)
08.06.2018 07:15 16,9 C 87 % 1012,9 hPa 0,0 l/m 0,9 km/h (0 Bft) NW 315 0 min 35 W/m 14,7 C 16,9 C 4,8 km/h (1 Bft)
08.06.2018 07:18 17,0 C 87 % 1013,0 hPa 0,0 l/m 1,4 km/h (1 Bft) N-NO 30 0 min 35 W/m 14,8 C 17,0 C 4,8 km/h (1 Bft)
08.06.2018 07:21 17,1 C 87 % 1013,0 hPa 0,0 l/m 1,1 km/h (1 Bft) O-NO 77 0 min 37 W/m 14,9 C 17,1 C 3,2 km/h (1 Bft)
08.06.2018 07:24 17,1 C 87 % 1013,0 hPa 0,0 l/m 0,1 km/h (0 Bft) O-NO 77 0 min 37 W/m 14,9 C 17,1 C 1,6 km/h (1 Bft)
08.06.2018 07:27 17,2 C 87 % 1013,0 hPa 0,0 l/m 0,9 km/h (0 Bft) O-NO 61 0 min 37 W/m 15,0 C 17,2 C 3,2 km/h (1 Bft)
08.06.2018 07:30 17,3 C 86 % 1013,0 hPa 0,0 l/m 1,8 km/h (1 Bft) NO 51 0 min 37 W/m 14,9 C 17,3 C 3,2 km/h (1 Bft)
08.06.2018 07:33 17,3 C 86 % 1013,0 hPa 0,0 l/m 1,3 km/h (1 Bft) N-NO 24 0 min 37 W/m 14,9 C 17,3 C 4,8 km/h (1 Bft)
08.06.2018 07:36 17,4 C 87 % 1013,0 hPa 0,0 l/m 2,3 km/h (1 Bft) N-NO 14 0 min 35 W/m 15,2 C 17,4 C 6,4 km/h (2 Bft)
08.06.2018 07:39 17,4 C 87 % 1013,0 hPa 0,0 l/m 2,5 km/h (1 Bft) NO 44 0 min 35 W/m 15,2 C 17,4 C 6,4 km/h (2 Bft)
08.06.2018 07:42 17,6 C 86 % 1013,0 hPa 0,0 l/m 2,7 km/h (1 Bft) NO 44 0 min 35 W/m 15,2 C 17,6 C 8,0 km/h (2 Bft)
08.06.2018 07:45 17,7 C 85 % 1013,1 hPa 0,0 l/m 1,9 km/h (1 Bft) O-NO 61 0 min 35 W/m 15,1 C 17,7 C 6,4 km/h (2 Bft)
08.06.2018 07:48 17,7 C 85 % 1013,1 hPa 0,0 l/m 0,6 km/h (0 Bft) O-NO 61 0 min 35 W/m 15,1 C 17,7 C 1,6 km/h (1 Bft)
08.06.2018 07:51 17,8 C 84 % 1013,1 hPa 0,0 l/m 0,6 km/h (0 Bft) O-NO 61 0 min 37 W/m 15,1 C 17,8 C 1,6 km/h (1 Bft)
08.06.2018 07:54 17,9 C 83 % 1013,2 hPa 0,0 l/m 1,8 km/h (1 Bft) N-NO 25 0 min 39 W/m 15,0 C 17,9 C 6,4 km/h (2 Bft)
08.06.2018 07:57 17,9 C 83 % 1013,2 hPa 0,0 l/m 1,8 km/h (1 Bft) NO 52 0 min 39 W/m 15,0 C 17,9 C 4,8 km/h (1 Bft)
08.06.2018 08:00 17,9 C 83 % 1013,2 hPa 0,0 l/m 1,9 km/h (1 Bft) N 360 0 min 40 W/m 15,0 C 17,9 C 6,4 km/h (2 Bft)
08.06.2018 08:03 18,0 C 83 % 1013,3 hPa 0,0 l/m 2,7 km/h (1 Bft) SW 233 0 min 40 W/m 15,1 C 18,0 C 8,0 km/h (2 Bft)
08.06.2018 08:06 18,1 C 82 % 1013,3 hPa 0,0 l/m 2,6 km/h (1 Bft) N 360 0 min 42 W/m 15,0 C 18,1 C 4,8 km/h (1 Bft)
08.06.2018 08:09 18,2 C 82 % 1013,3 hPa 0,0 l/m 2,6 km/h (1 Bft) N 355 0 min 44 W/m 15,1 C 18,2 C 4,8 km/h (1 Bft)
08.06.2018 08:12 18,3 C 81 % 1013,3 hPa 0,0 l/m 2,3 km/h (1 Bft) N-NO 30 0 min 46 W/m 15,0 C 18,3 C 6,4 km/h (2 Bft)
08.06.2018 08:15 18,4 C 81 % 1013,2 hPa 0,0 l/m 2,6 km/h (1 Bft) N 355 0 min 118 W/m 15,1 C 18,4 C 8,0 km/h (2 Bft)
08.06.2018 08:18 18,6 C 81 % 1013,3 hPa 0,0 l/m 3,4 km/h (1 Bft) NW 321 3 min 241 W/m 15,3 C 18,6 C 8,0 km/h (2 Bft)
08.06.2018 08:21 18,8 C 80 % 1013,3 hPa 0,0 l/m 4,5 km/h (1 Bft) N-NO 17 3 min 348 W/m 15,3 C 18,8 C 11,3 km/h (2 Bft)
08.06.2018 08:24 19,0 C 78 % 1013,3 hPa 0,0 l/m 3,9 km/h (1 Bft) N-NO 33 3 min 371 W/m 15,1 C 19,0 C 8,0 km/h (2 Bft)
08.06.2018 08:27 19,2 C 78 % 1013,4 hPa 0,0 l/m 2,9 km/h (1 Bft) N-NO 25 3 min 378 W/m 15,3 C 19,2 C 6,4 km/h (2 Bft)
08.06.2018 08:30 19,3 C 78 % 1013,5 hPa 0,0 l/m 1,6 km/h (1 Bft) O-NO 74 3 min 385 W/m 15,4 C 19,3 C 4,8 km/h (1 Bft)
08.06.2018 08:33 19,3 C 79 % 1013,5 hPa 0,0 l/m 2,7 km/h (1 Bft) N 355 3 min 397 W/m 15,6 C 19,3 C 4,8 km/h (1 Bft)
08.06.2018 08:36 19,5 C 78 % 1013,5 hPa 0,0 l/m 3,0 km/h (1 Bft) N-NO 13 3 min 408 W/m 15,6 C 19,5 C 6,4 km/h (2 Bft)
08.06.2018 08:39 19,7 C 78 % 1013,5 hPa 0,0 l/m 2,8 km/h (1 Bft) N-NW 346 3 min 418 W/m 15,8 C 19,7 C 6,4 km/h (2 Bft)
08.06.2018 08:42 19,9 C 78 % 1013,5 hPa 0,0 l/m 1,8 km/h (1 Bft) N 355 3 min 422 W/m 15,9 C 19,9 C 4,8 km/h (1 Bft)
08.06.2018 08:45 20,2 C 76 % 1013,5 hPa 0,0 l/m 2,1 km/h (1 Bft) N-NO 29 3 min 424 W/m 15,8 C 20,2 C 6,4 km/h (2 Bft)
08.06.2018 08:48 20,3 C 76 % 1013,5 hPa 0,0 l/m 1,2 km/h (1 Bft) N-NO 29 3 min 429 W/m 15,9 C 20,3 C 3,2 km/h (1 Bft)
08.06.2018 08:51 20,3 C 75 % 1013,5 hPa 0,0 l/m 2,1 km/h (1 Bft) NO 47 3 min 448 W/m 15,7 C 20,3 C 8,0 km/h (2 Bft)
08.06.2018 08:54 20,5 C 75 % 1013,6 hPa 0,0 l/m 2,9 km/h (1 Bft) NO 46 3 min 434 W/m 15,9 C 20,5 C 6,4 km/h (2 Bft)
08.06.2018 08:57 20,6 C 74 % 1013,6 hPa 0,0 l/m 1,7 km/h (1 Bft) N-NO 17 3 min 390 W/m 15,8 C 20,6 C 3,2 km/h (1 Bft)
08.06.2018 09:00 20,6 C 75 % 1013,6 hPa 0,0 l/m 2,7 km/h (1 Bft) O 81 3 min 454 W/m 16,0 C 20,6 C 4,8 km/h (1 Bft)
08.06.2018 09:03 20,8 C 75 % 1013,5 hPa 0,0 l/m 1,1 km/h (1 Bft) O-NO 76 3 min 473 W/m 16,2 C 20,8 C 4,8 km/h (1 Bft)
08.06.2018 09:06 21,0 C 75 % 1013,6 hPa 0,0 l/m 2,6 km/h (1 Bft) N 5 3 min 487 W/m 16,4 C 21,0 C 6,4 km/h (2 Bft)
08.06.2018 09:09 21,1 C 73 % 1013,5 hPa 0,0 l/m 3,3 km/h (1 Bft) NO 39 3 min 496 W/m 16,1 C 21,1 C 9,7 km/h (2 Bft)
08.06.2018 09:12 21,1 C 73 % 1013,6 hPa 0,0 l/m 3,0 km/h (1 Bft) N 355 3 min 510 W/m 16,1 C 21,1 C 6,4 km/h (2 Bft)
08.06.2018 09:15 21,2 C 72 % 1013,6 hPa 0,0 l/m 3,1 km/h (1 Bft) N 355 3 min 510 W/m 15,9 C 21,2 C 6,4 km/h (2 Bft)
08.06.2018 09:18 21,4 C 71 % 1013,6 hPa 0,0 l/m 2,3 km/h (1 Bft) NO 43 3 min 522 W/m 15,9 C 21,4 C 4,8 km/h (1 Bft)
08.06.2018 09:21 21,7 C 70 % 1013,5 hPa 0,0 l/m 3,6 km/h (1 Bft) N-NO 17 3 min 520 W/m 16,0 C 21,7 C 8,0 km/h (2 Bft)
08.06.2018 09:24 21,7 C 71 % 1013,6 hPa 0,0 l/m 2,6 km/h (1 Bft) N-NO 32 3 min 527 W/m 16,2 C 21,7 C 6,4 km/h (2 Bft)
08.06.2018 09:27 21,8 C 71 % 1013,6 hPa 0,0 l/m 2,2 km/h (1 Bft) N-NW 333 3 min 543 W/m 16,3 C 21,8 C 4,8 km/h (1 Bft)
08.06.2018 09:30 21,9 C 70 % 1013,6 hPa 0,0 l/m 2,2 km/h (1 Bft) N 9 3 min 557 W/m 16,2 C 21,9 C 6,4 km/h (2 Bft)
08.06.2018 09:33 22,1 C 70 % 1013,6 hPa 0,0 l/m 2,5 km/h (1 Bft) N 5 3 min 566 W/m 16,4 C 22,1 C 4,8 km/h (1 Bft)
08.06.2018 09:36 22,3 C 70 % 1013,6 hPa 0,0 l/m 2,5 km/h (1 Bft) N-NW 339 3 min 577 W/m 16,6 C 22,3 C 6,4 km/h (2 Bft)
08.06.2018 09:39 22,3 C 69 % 1013,6 hPa 0,0 l/m 4,4 km/h (1 Bft) NO 34 3 min 589 W/m 16,3 C 22,3 C 9,7 km/h (2 Bft)
08.06.2018 09:42 22,3 C 68 % 1013,6 hPa 0,0 l/m 2,8 km/h (1 Bft) N-NO 32 3 min 594 W/m 16,1 C 22,3 C 4,8 km/h (1 Bft)
08.06.2018 09:45 22,4 C 66 % 1013,7 hPa 0,0 l/m 5,0 km/h (1 Bft) N 5 3 min 529 W/m 15,7 C 22,4 C 8,0 km/h (2 Bft)
08.06.2018 09:48 22,3 C 67 % 1013,7 hPa 0,0 l/m 1,5 km/h (1 Bft) N-NW 336 3 min 575 W/m 15,9 C 22,3 C 4,8 km/h (1 Bft)
08.06.2018 09:51 22,4 C 67 % 1013,6 hPa 0,0 l/m 4,5 km/h (1 Bft) N 5 3 min 492 W/m 16,0 C 22,4 C 11,3 km/h (2 Bft)
08.06.2018 09:54 22,5 C 65 % 1013,6 hPa 0,0 l/m 4,0 km/h (1 Bft) NO 50 3 min 468 W/m 15,6 C 22,5 C 9,7 km/h (2 Bft)
08.06.2018 09:57 22,6 C 66 % 1013,6 hPa 0,0 l/m 3,2 km/h (1 Bft) N-NW 332 3 min 506 W/m 15,9 C 22,6 C 8,0 km/h (2 Bft)
08.06.2018 10:00 22,7 C 65 % 1013,5 hPa 0,0 l/m 4,2 km/h (1 Bft) N 360 3 min 564 W/m 15,8 C 22,7 C 8,0 km/h (2 Bft)
08.06.2018 10:03 22,9 C 63 % 1013,5 hPa 0,0 l/m 6,0 km/h (2 Bft) N-NO 19 3 min 566 W/m 15,5 C 22,9 C 9,7 km/h (2 Bft)
08.06.2018 10:06 22,9 C 64 % 1013,5 hPa 0,0 l/m 4,2 km/h (1 Bft) N 355 3 min 557 W/m 15,7 C 22,9 C 8,0 km/h (2 Bft)
08.06.2018 10:09 23,1 C 64 % 1013,4 hPa 0,0 l/m 4,9 km/h (1 Bft) N-NO 27 3 min 559 W/m 15,9 C 23,1 C 8,0 km/h (2 Bft)
08.06.2018 10:12 23,1 C 64 % 1013,5 hPa 0,0 l/m 4,4 km/h (1 Bft) N 9 3 min 519 W/m 15,9 C 23,1 C 6,4 km/h (2 Bft)
08.06.2018 10:15 23,3 C 63 % 1013,4 hPa 0,0 l/m 4,6 km/h (1 Bft) N-NW 333 3 min 526 W/m 15,9 C 23,3 C 8,0 km/h (2 Bft)
08.06.2018 10:18 23,3 C 66 % 1013,4 hPa 0,0 l/m 3,7 km/h (1 Bft) N 5 3 min 577 W/m 16,6 C 23,3 C 11,3 km/h (2 Bft)
08.06.2018 10:21 23,5 C 64 % 1013,4 hPa 0,0 l/m 3,4 km/h (1 Bft) N 5 3 min 570 W/m 16,3 C 23,5 C 8,0 km/h (2 Bft)
08.06.2018 10:24 23,7 C 65 % 1013,4 hPa 0,0 l/m 3,2 km/h (1 Bft) N-NO 30 3 min 429 W/m 16,7 C 23,7 C 6,4 km/h (2 Bft)
08.06.2018 10:27 23,6 C 65 % 1013,4 hPa 0,0 l/m 3,7 km/h (1 Bft) N 360 3 min 631 W/m 16,6 C 23,6 C 8,0 km/h (2 Bft)
08.06.2018 10:30 23,8 C 65 % 1013,4 hPa 0,0 l/m 4,9 km/h (1 Bft) N 10 3 min 680 W/m 16,8 C 23,8 C 11,3 km/h (2 Bft)
08.06.2018 10:33 23,9 C 66 % 1013,4 hPa 0,0 l/m 2,7 km/h (1 Bft) N-NW 347 3 min 698 W/m 17,1 C 23,9 C 8,0 km/h (2 Bft)
08.06.2018 10:36 23,9 C 64 % 1013,4 hPa 0,0 l/m 2,6 km/h (1 Bft) N-NW 343 3 min 483 W/m 16,7 C 23,9 C 6,4 km/h (2 Bft)
08.06.2018 10:39 23,7 C 63 % 1013,4 hPa 0,0 l/m 3,8 km/h (1 Bft) N 5 3 min 682 W/m 16,2 C 23,7 C 8,0 km/h (2 Bft)
08.06.2018 10:42 23,9 C 65 % 1013,4 hPa 0,0 l/m 3,9 km/h (1 Bft) W-NW 284 3 min 687 W/m 16,9 C 23,9 C 8,0 km/h (2 Bft)
08.06.2018 10:45 24,1 C 62 % 1013,3 hPa 0,0 l/m 5,2 km/h (1 Bft) NO 42 3 min 661 W/m 16,4 C 24,1 C 14,5 km/h (3 Bft)
08.06.2018 10:48 24,2 C 63 % 1013,3 hPa 0,0 l/m 3,3 km/h (1 Bft) N-NO 20 3 min 663 W/m 16,7 C 24,2 C 11,3 km/h (2 Bft)
08.06.2018 10:51 24,1 C 62 % 1013,3 hPa 0,0 l/m 4,8 km/h (1 Bft) NW 305 3 min 756 W/m 16,4 C 24,1 C 9,7 km/h (2 Bft)
08.06.2018 10:54 24,1 C 62 % 1013,3 hPa 0,0 l/m 3,5 km/h (1 Bft) N 355 3 min 656 W/m 16,4 C 24,1 C 8,0 km/h (2 Bft)
08.06.2018 10:57 24,3 C 62 % 1013,3 hPa 0,0 l/m 3,9 km/h (1 Bft) N-NO 22 3 min 796 W/m 16,5 C 24,3 C 11,3 km/h (2 Bft)
08.06.2018 11:00 24,5 C 61 % 1013,4 hPa 0,0 l/m 4,9 km/h (1 Bft) NO 53 3 min 782 W/m 16,5 C 24,5 C 9,7 km/h (2 Bft)
08.06.2018 11:03 24,7 C 61 % 1013,4 hPa 0,0 l/m 4,2 km/h (1 Bft) N 5 3 min 768 W/m 16,7 C 24,7 C 8,0 km/h (2 Bft)
08.06.2018 11:06 24,8 C 61 % 1013,4 hPa 0,0 l/m 5,1 km/h (1 Bft) N-NO 27 3 min 765 W/m 16,8 C 24,8 C 8,0 km/h (2 Bft)
08.06.2018 11:09 24,8 C 61 % 1013,4 hPa 0,0 l/m 4,0 km/h (1 Bft) N 9 3 min 761 W/m 16,8 C 24,8 C 11,3 km/h (2 Bft)
08.06.2018 11:12 25,0 C 60 % 1013,4 hPa 0,0 l/m 3,7 km/h (1 Bft) N-NW 337 3 min 761 W/m 16,7 C 25,0 C 8,0 km/h (2 Bft)
08.06.2018 11:15 25,1 C 60 % 1013,4 hPa 0,0 l/m 5,5 km/h (2 Bft) N-NO 30 3 min 765 W/m 16,8 C 25,1 C 14,5 km/h (3 Bft)
08.06.2018 11:18 24,9 C 58 % 1013,4 hPa 0,0 l/m 5,0 km/h (1 Bft) N-NO 14 3 min 766 W/m 16,1 C 24,9 C 9,7 km/h (2 Bft)
08.06.2018 11:21 24,8 C 56 % 1013,4 hPa 0,0 l/m 6,3 km/h (2 Bft) N-NO 15 3 min 772 W/m 15,4 C 24,8 C 11,3 km/h (2 Bft)
08.06.2018 11:24 24,8 C 58 % 1013,4 hPa 0,0 l/m 4,0 km/h (1 Bft) N-NW 336 3 min 772 W/m 16,0 C 24,8 C 8,0 km/h (2 Bft)
08.06.2018 11:27 24,9 C 57 % 1013,4 hPa 0,0 l/m 3,3 km/h (1 Bft) NO 48 3 min 777 W/m 15,8 C 24,9 C 8,0 km/h (2 Bft)
08.06.2018 11:30 25,1 C 56 % 1013,5 hPa 0,0 l/m 2,5 km/h (1 Bft) N 349 3 min 782 W/m 15,7 C 25,1 C 4,8 km/h (1 Bft)
08.06.2018 11:33 25,3 C 57 % 1013,5 hPa 0,0 l/m 1,5 km/h (1 Bft) NW 322 3 min 782 W/m 16,2 C 25,3 C 4,8 km/h (1 Bft)
08.06.2018 11:36 25,5 C 57 % 1013,4 hPa 0,0 l/m 3,4 km/h (1 Bft) N-NO 17 3 min 786 W/m 16,3 C 25,5 C 8,0 km/h (2 Bft)
08.06.2018 11:39 25,7 C 55 % 1013,5 hPa 0,0 l/m 4,6 km/h (1 Bft) N 360 3 min 791 W/m 16,0 C 25,7 C 12,9 km/h (3 Bft)
08.06.2018 11:42 25,9 C 51 % 1013,5 hPa 0,0 l/m 6,0 km/h (2 Bft) N 355 3 min 791 W/m 15,0 C 25,9 C 16,1 km/h (3 Bft)
08.06.2018 11:45 25,8 C 53 % 1013,5 hPa 0,0 l/m 3,2 km/h (1 Bft) N-NW 333 3 min 793 W/m 15,5 C 25,8 C 9,7 km/h (2 Bft)
08.06.2018 11:48 26,0 C 51 % 1013,5 hPa 0,0 l/m 4,0 km/h (1 Bft) N 355 3 min 800 W/m 15,1 C 26,0 C 9,7 km/h (2 Bft)
08.06.2018 11:51 26,2 C 50 % 1013,5 hPa 0,0 l/m 5,1 km/h (1 Bft) N 355 3 min 805 W/m 14,9 C 26,2 C 12,9 km/h (3 Bft)
08.06.2018 11:54 26,3 C 51 % 1013,5 hPa 0,0 l/m 4,1 km/h (1 Bft) N 360 3 min 810 W/m 15,3 C 26,3 C 14,5 km/h (3 Bft)
08.06.2018 11:57 26,4 C 51 % 1013,5 hPa 0,0 l/m 4,0 km/h (1 Bft) N 360 3 min 814 W/m 15,4 C 26,4 C 8,0 km/h (2 Bft)
08.06.2018 12:00 26,4 C 50 % 1013,5 hPa 0,0 l/m 4,4 km/h (1 Bft) NO 54 3 min 807 W/m 15,1 C 26,4 C 9,7 km/h (2 Bft)
08.06.2018 12:03 26,4 C 49 % 1013,6 hPa 0,0 l/m 5,6 km/h (2 Bft) NW 319 3 min 786 W/m 14,8 C 26,4 C 12,9 km/h (3 Bft)
08.06.2018 12:06 26,2 C 52 % 1013,5 hPa 0,0 l/m 4,7 km/h (1 Bft) N-NW 335 3 min 766 W/m 15,6 C 26,2 C 12,9 km/h (3 Bft)
08.06.2018 12:09 26,3 C 52 % 1013,5 hPa 0,0 l/m 5,8 km/h (2 Bft) N 360 3 min 722 W/m 15,6 C 26,3 C 8,0 km/h (2 Bft)
08.06.2018 12:12 26,5 C 51 % 1013,5 hPa 0,0 l/m 4,5 km/h (1 Bft) NO 37 3 min 671 W/m 15,5 C 26,5 C 12,9 km/h (3 Bft)
08.06.2018 12:15 26,4 C 52 % 1013,5 hPa 0,0 l/m 3,1 km/h (1 Bft) N 5 3 min 687 W/m 15,7 C 26,4 C 4,8 km/h (1 Bft)
08.06.2018 12:18 26,3 C 52 % 1013,4 hPa 0,0 l/m 3,5 km/h (1 Bft) N 360 3 min 652 W/m 15,6 C 26,3 C 8,0 km/h (2 Bft)
08.06.2018 12:21 26,4 C 53 % 1013,4 hPa 0,0 l/m 4,0 km/h (1 Bft) O 94 3 min 670 W/m 16,0 C 26,4 C 6,4 km/h (2 Bft)
08.06.2018 12:24 26,4 C 53 % 1013,4 hPa 0,0 l/m 5,0 km/h (1 Bft) N-NO 33 3 min 654 W/m 16,0 C 26,4 C 11,3 km/h (2 Bft)
08.06.2018 12:27 26,3 C 52 % 1013,4 hPa 0,0 l/m 5,9 km/h (2 Bft) NW 326 3 min 650 W/m 15,6 C 26,3 C 9,7 km/h (2 Bft)
08.06.2018 12:30 26,5 C 53 % 1013,4 hPa 0,0 l/m 3,7 km/h (1 Bft) O-NO 66 3 min 670 W/m 16,1 C 26,5 C 9,7 km/h (2 Bft)
08.06.2018 12:33 26,8 C 53 % 1013,3 hPa 0,0 l/m 4,5 km/h (1 Bft) N 355 3 min 680 W/m 16,4 C 26,8 C 8,0 km/h (2 Bft)
08.06.2018 12:36 26,9 C 51 % 1013,4 hPa 0,0 l/m 6,6 km/h (2 Bft) N 5 3 min 693 W/m 15,9 C 26,9 C 9,7 km/h (2 Bft)
08.06.2018 12:39 26,7 C 52 % 1013,4 hPa 0,0 l/m 4,4 km/h (1 Bft) N-NW 336 3 min 747 W/m 16,0 C 26,7 C 11,3 km/h (2 Bft)
08.06.2018 12:42 26,9 C 53 % 1013,4 hPa 0,0 l/m 8,0 km/h (2 Bft) N-NW 331 3 min 738 W/m 16,5 C 26,6 C 14,5 km/h (3 Bft)
08.06.2018 12:45 26,9 C 53 % 1013,3 hPa 0,0 l/m 7,4 km/h (2 Bft) N-NW 339 3 min 758 W/m 16,5 C 26,7 C 12,9 km/h (3 Bft)
08.06.2018 12:48 26,8 C 53 % 1013,3 hPa 0,0 l/m 5,9 km/h (2 Bft) NW 315 3 min 796 W/m 16,4 C 26,8 C 12,9 km/h (3 Bft)
08.06.2018 12:51 27,0 C 54 % 1013,3 hPa 0,0 l/m 6,4 km/h (2 Bft) NW 317 3 min 796 W/m 16,9 C 27,0 C 12,9 km/h (3 Bft)
08.06.2018 12:54 26,9 C 53 % 1013,3 hPa 0,0 l/m 5,3 km/h (1 Bft) N-NW 344 3 min 796 W/m 16,5 C 26,9 C 12,9 km/h (3 Bft)
08.06.2018 12:57 26,8 C 52 % 1013,4 hPa 0,0 l/m 5,7 km/h (2 Bft) N 350 3 min 796 W/m 16,1 C 26,8 C 12,9 km/h (3 Bft)
08.06.2018 13:00 26,8 C 53 % 1013,3 hPa 0,0 l/m 6,4 km/h (2 Bft) N 355 3 min 847 W/m 16,4 C 26,8 C 12,9 km/h (3 Bft)
08.06.2018 13:03 26,7 C 52 % 1013,3 hPa 0,0 l/m 4,9 km/h (1 Bft) N-NW 348 3 min 888 W/m 16,0 C 26,7 C 12,9 km/h (3 Bft)
08.06.2018 13:06 26,7 C 52 % 1013,3 hPa 0,0 l/m 6,0 km/h (2 Bft) N 349 3 min 828 W/m 16,0 C 26,7 C 12,9 km/h (3 Bft)
08.06.2018 13:09 27,0 C 49 % 1013,3 hPa 0,0 l/m 7,7 km/h (2 Bft) N 9 3 min 828 W/m 15,4 C 26,8 C 14,5 km/h (3 Bft)
08.06.2018 13:12 27,2 C 49 % 1013,3 hPa 0,0 l/m 9,6 km/h (2 Bft) N-NW 339 3 min 729 W/m 15,5 C 26,7 C 16,1 km/h (3 Bft)
08.06.2018 13:15 27,6 C 47 % 1013,3 hPa 0,0 l/m 8,8 km/h (2 Bft) N-NW 347 3 min 900 W/m 15,3 C 27,2 C 16,1 km/h (3 Bft)
08.06.2018 13:18 27,6 C 47 % 1013,3 hPa 0,0 l/m 5,5 km/h (2 Bft) N-NO 13 3 min 898 W/m 15,3 C 27,6 C 11,3 km/h (2 Bft)
08.06.2018 13:21 27,8 C 46 % 1013,3 hPa 0,0 l/m 5,2 km/h (1 Bft) N-NW 331 3 min 865 W/m 15,1 C 27,8 C 12,9 km/h (3 Bft)
08.06.2018 13:24 27,9 C 45 % 1013,2 hPa 0,0 l/m 5,9 km/h (2 Bft) N-NO 21 3 min 802 W/m 14,8 C 27,9 C 16,1 km/h (3 Bft)
08.06.2018 13:27 27,7 C 45 % 1013,2 hPa 0,0 l/m 3,7 km/h (1 Bft) N-NW 343 3 min 824 W/m 14,7 C 27,7 C 12,9 km/h (3 Bft)
08.06.2018 13:30 27,3 C 47 % 1013,2 hPa 0,0 l/m 3,7 km/h (1 Bft) N-NW 347 3 min 715 W/m 15,0 C 27,3 C 9,7 km/h (2 Bft)
08.06.2018 13:33 27,1 C 46 % 1013,1 hPa 0,0 l/m 4,7 km/h (1 Bft) N-NW 344 3 min 712 W/m 14,5 C 27,1 C 8,0 km/h (2 Bft)
08.06.2018 13:36 27,4 C 49 % 1013,1 hPa 0,0 l/m 7,3 km/h (2 Bft) NW 309 3 min 765 W/m 15,7 C 27,2 C 14,5 km/h (3 Bft)
08.06.2018 13:39 27,8 C 46 % 1013,1 hPa 0,0 l/m 7,2 km/h (2 Bft) N 355 3 min 821 W/m 15,1 C 27,7 C 16,1 km/h (3 Bft)
08.06.2018 13:42 27,7 C 49 % 1013,1 hPa 0,0 l/m 8,4 km/h (2 Bft) N 360 3 min 749 W/m 16,0 C 27,4 C 14,5 km/h (3 Bft)
08.06.2018 13:45 27,4 C 50 % 1013,1 hPa 0,0 l/m 8,9 km/h (2 Bft) NW 323 3 min 796 W/m 16,0 C 27,0 C 16,1 km/h (3 Bft)
08.06.2018 13:48 27,4 C 50 % 1013,1 hPa 0,0 l/m 10,1 km/h (2 Bft) N 355 3 min 756 W/m 16,0 C 26,8 C 17,7 km/h (3 Bft)
08.06.2018 13:51 27,6 C 49 % 1013,1 hPa 0,0 l/m 11,0 km/h (2 Bft) N 5 3 min 701 W/m 15,9 C 26,9 C 19,3 km/h (3 Bft)
08.06.2018 13:54 27,3 C 52 % 1013,1 hPa 0,0 l/m 9,4 km/h (2 Bft) N-NO 13 3 min 686 W/m 16,6 C 26,8 C 16,1 km/h (3 Bft)
08.06.2018 13:57 27,3 C 51 % 1013,2 hPa 0,0 l/m 9,8 km/h (2 Bft) N 351 3 min 682 W/m 16,3 C 26,7 C 17,7 km/h (3 Bft)
08.06.2018 14:00 27,2 C 52 % 1013,1 hPa 0,0 l/m 9,9 km/h (2 Bft) NW 311 3 min 666 W/m 16,5 C 26,6 C 19,3 km/h (3 Bft)
08.06.2018 14:03 27,1 C 52 % 1013,1 hPa 0,0 l/m 9,7 km/h (2 Bft) N 355 3 min 756 W/m 16,4 C 26,5 C 19,3 km/h (3 Bft)
08.06.2018 14:06 26,9 C 54 % 1013,1 hPa 0,0 l/m 9,8 km/h (2 Bft) NW 315 3 min 654 W/m 16,8 C 26,3 C 17,7 km/h (3 Bft)
08.06.2018 14:09 26,9 C 53 % 1013,1 hPa 0,0 l/m 10,8 km/h (2 Bft) N-NW 338 3 min 784 W/m 16,5 C 26,1 C 19,3 km/h (3 Bft)
08.06.2018 14:12 26,9 C 54 % 1013,1 hPa 0,0 l/m 11,7 km/h (2 Bft) N-NW 341 3 min 788 W/m 16,8 C 26,0 C 19,3 km/h (3 Bft)
08.06.2018 14:15 26,7 C 53 % 1013,0 hPa 0,0 l/m 12,4 km/h (2 Bft) N 351 3 min 793 W/m 16,3 C 25,7 C 22,5 km/h (4 Bft)
08.06.2018 14:18 27,0 C 54 % 1013,0 hPa 0,0 l/m 9,5 km/h (2 Bft) N 360 3 min 789 W/m 16,9 C 26,4 C 16,1 km/h (3 Bft)
08.06.2018 14:21 27,2 C 52 % 1013,0 hPa 0,0 l/m 10,7 km/h (2 Bft) NW 325 3 min 772 W/m 16,5 C 26,5 C 17,7 km/h (3 Bft)
08.06.2018 14:24 27,1 C 52 % 1012,9 hPa 0,0 l/m 12,1 km/h (2 Bft) N-NW 334 3 min 650 W/m 16,4 C 26,2 C 22,5 km/h (4 Bft)
08.06.2018 14:27 27,0 C 52 % 1012,9 hPa 0,0 l/m 11,3 km/h (2 Bft) NW 322 3 min 661 W/m 16,3 C 26,2 C 20,9 km/h (4 Bft)
08.06.2018 14:30 26,7 C 53 % 1012,9 hPa 0,0 l/m 10,8 km/h (2 Bft) NW 309 3 min 573 W/m 16,3 C 25,9 C 17,7 km/h (3 Bft)
08.06.2018 14:33 26,5 C 52 % 1012,9 hPa 0,0 l/m 10,6 km/h (2 Bft) N-NW 338 3 min 573 W/m 15,8 C 25,7 C 17,7 km/h (3 Bft)
08.06.2018 14:36 26,8 C 51 % 1012,8 hPa 0,0 l/m 9,8 km/h (2 Bft) NW 317 3 min 622 W/m 15,8 C 26,2 C 19,3 km/h (3 Bft)
08.06.2018 14:39 27,0 C 51 % 1012,7 hPa 0,0 l/m 8,2 km/h (2 Bft) N-NW 341 3 min 501 W/m 16,0 C 26,7 C 17,7 km/h (3 Bft)
08.06.2018 14:42 26,9 C 50 % 1012,7 hPa 0,0 l/m 13,0 km/h (3 Bft) NW 315 0 min 427 W/m 15,6 C 25,8 C 22,5 km/h (4 Bft)
08.06.2018 14:45 26,6 C 52 % 1012,8 hPa 0,0 l/m 8,9 km/h (2 Bft) N 360 0 min 362 W/m 15,9 C 26,1 C 16,1 km/h (3 Bft)
08.06.2018 14:48 26,3 C 51 % 1012,7 hPa 0,0 l/m 10,9 km/h (2 Bft) N 360 0 min 373 W/m 15,3 C 25,5 C 19,3 km/h (3 Bft)
08.06.2018 14:51 26,1 C 52 % 1012,7 hPa 0,0 l/m 7,8 km/h (2 Bft) NW 321 0 min 345 W/m 15,5 C 25,8 C 16,1 km/h (3 Bft)
08.06.2018 14:54 25,9 C 53 % 1012,8 hPa 0,0 l/m 9,6 km/h (2 Bft) N-NW 333 0 min 359 W/m 15,6 C 25,2 C 19,3 km/h (3 Bft)
08.06.2018 14:57 25,9 C 51 % 1012,8 hPa 0,0 l/m 12,7 km/h (3 Bft) NW 321 0 min 439 W/m 15,0 C 24,7 C 19,3 km/h (3 Bft)
08.06.2018 15:00 25,8 C 52 % 1012,8 hPa 0,0 l/m 10,4 km/h (2 Bft) N 360 0 min 408 W/m 15,2 C 25,0 C 16,1 km/h (3 Bft)
08.06.2018 15:03 25,8 C 51 % 1012,7 hPa 0,0 l/m 12,4 km/h (2 Bft) N-NW 343 0 min 403 W/m 14,9 C 24,6 C 20,9 km/h (4 Bft)
08.06.2018 15:06 25,7 C 51 % 1012,8 hPa 0,0 l/m 11,2 km/h (2 Bft) N-NO 13 0 min 417 W/m 14,8 C 24,7 C 19,3 km/h (3 Bft)
08.06.2018 15:09 25,6 C 50 % 1012,8 hPa 0,0 l/m 10,6 km/h (2 Bft) W-NW 300 0 min 417 W/m 14,4 C 24,7 C 22,5 km/h (4 Bft)
08.06.2018 15:12 25,6 C 51 % 1012,7 hPa 0,0 l/m 9,6 km/h (2 Bft) NW 316 0 min 417 W/m 14,7 C 24,9 C 17,7 km/h (3 Bft)
08.06.2018 15:15 25,8 C 49 % 1012,8 hPa 0,0 l/m 10,5 km/h (2 Bft) W 279 0 min 399 W/m 14,3 C 25,0 C 17,7 km/h (3 Bft)
08.06.2018 15:18 25,7 C 51 % 1012,8 hPa 0,0 l/m 8,6 km/h (2 Bft) N-NW 342 0 min 399 W/m 14,8 C 25,2 C 17,7 km/h (3 Bft)
08.06.2018 15:21 25,5 C 52 % 1012,8 hPa 0,0 l/m 9,8 km/h (2 Bft) N-NW 335 3 min 446 W/m 14,9 C 24,8 C 17,7 km/h (3 Bft)
08.06.2018 15:24 25,6 C 53 % 1012,8 hPa 0,0 l/m 11,4 km/h (2 Bft) W-NW 286 3 min 471 W/m 15,3 C 24,6 C 19,3 km/h (3 Bft)
08.06.2018 15:27 25,6 C 52 % 1012,8 hPa 0,0 l/m 8,9 km/h (2 Bft) N 355 3 min 492 W/m 15,0 C 25,0 C 16,1 km/h (3 Bft)
08.06.2018 15:30 25,6 C 52 % 1012,8 hPa 0,0 l/m 11,4 km/h (2 Bft) N-NW 337 3 min 471 W/m 15,0 C 24,6 C 19,3 km/h (3 Bft)
08.06.2018 15:33 25,6 C 52 % 1012,8 hPa 0,0 l/m 11,2 km/h (2 Bft) N 355 3 min 490 W/m 15,0 C 24,6 C 19,3 km/h (3 Bft)
08.06.2018 15:36 25,7 C 53 % 1012,9 hPa 0,0 l/m 9,7 km/h (2 Bft) N-NW 331 3 min 571 W/m 15,4 C 25,0 C 19,3 km/h (3 Bft)
08.06.2018 15:39 25,8 C 51 % 1012,8 hPa 0,0 l/m 11,5 km/h (2 Bft) NW 304 3 min 494 W/m 14,9 C 24,8 C 22,5 km/h (4 Bft)
08.06.2018 15:42 25,8 C 52 % 1012,8 hPa 0,0 l/m 9,6 km/h (2 Bft) N 355 3 min 529 W/m 15,2 C 25,1 C 19,3 km/h (3 Bft)
08.06.2018 15:45 25,9 C 53 % 1012,8 hPa 0,0 l/m 10,4 km/h (2 Bft) W-NW 296 3 min 592 W/m 15,6 C 25,1 C 17,7 km/h (3 Bft)
08.06.2018 15:48 25,9 C 52 % 1012,8 hPa 0,0 l/m 11,5 km/h (2 Bft) N 349 3 min 608 W/m 15,3 C 24,9 C 19,3 km/h (3 Bft)
08.06.2018 15:51 25,9 C 54 % 1012,9 hPa 0,0 l/m 11,5 km/h (2 Bft) N-NW 346 3 min 666 W/m 15,9 C 24,9 C 20,9 km/h (4 Bft)
08.06.2018 15:54 25,9 C 52 % 1012,9 hPa 0,0 l/m 12,6 km/h (3 Bft) N-NW 333 3 min 724 W/m 15,3 C 24,7 C 24,1 km/h (4 Bft)
08.06.2018 15:57 26,0 C 51 % 1012,8 hPa 0,0 l/m 12,1 km/h (2 Bft) N 351 3 min 698 W/m 15,1 C 24,9 C 20,9 km/h (4 Bft)
08.06.2018 16:00 25,8 C 52 % 1012,9 hPa 0,0 l/m 11,8 km/h (2 Bft) N 355 3 min 527 W/m 15,2 C 24,7 C 20,9 km/h (4 Bft)
08.06.2018 16:03 25,9 C 52 % 1012,9 hPa 0,0 l/m 12,2 km/h (2 Bft) NW 313 3 min 640 W/m 15,3 C 24,8 C 24,1 km/h (4 Bft)
08.06.2018 16:06 26,3 C 51 % 1012,9 hPa 0,0 l/m 11,6 km/h (2 Bft) N-NW 332 3 min 643 W/m 15,3 C 25,3 C 20,9 km/h (4 Bft)
08.06.2018 16:09 26,4 C 52 % 1012,9 hPa 0,0 l/m 8,8 km/h (2 Bft) N 355 3 min 693 W/m 15,7 C 25,9 C 17,7 km/h (3 Bft)
08.06.2018 16:12 26,7 C 49 % 1012,9 hPa 0,0 l/m 11,2 km/h (2 Bft) NW 315 3 min 738 W/m 15,1 C 25,9 C 20,9 km/h (4 Bft)
08.06.2018 16:15 26,6 C 49 % 1012,8 hPa 0,0 l/m 13,9 km/h (3 Bft) N 355 3 min 740 W/m 15,0 C 25,4 C 20,9 km/h (4 Bft)
08.06.2018 16:18 26,5 C 51 % 1012,8 hPa 0,0 l/m 13,3 km/h (3 Bft) N-NW 330 3 min 666 W/m 15,5 C 25,3 C 20,9 km/h (4 Bft)
08.06.2018 16:21 26,1 C 52 % 1012,8 hPa 0,0 l/m 14,1 km/h (3 Bft) N-NW 332 3 min 749 W/m 15,5 C 24,8 C 24,1 km/h (4 Bft)
08.06.2018 16:24 26,1 C 54 % 1012,8 hPa 0,0 l/m 11,9 km/h (2 Bft) N-NO 26 3 min 694 W/m 16,0 C 25,1 C 20,9 km/h (4 Bft)
08.06.2018 16:27 26,1 C 52 % 1012,7 hPa 0,0 l/m 12,1 km/h (2 Bft) N-NW 332 3 min 631 W/m 15,5 C 25,0 C 17,7 km/h (3 Bft)
08.06.2018 16:30 26,2 C 54 % 1012,7 hPa 0,0 l/m 11,9 km/h (2 Bft) N-NW 338 3 min 645 W/m 16,1 C 25,2 C 20,9 km/h (4 Bft)
08.06.2018 16:33 26,1 C 53 % 1012,8 hPa 0,0 l/m 14,1 km/h (3 Bft) N 5 3 min 508 W/m 15,8 C 24,8 C 24,1 km/h (4 Bft)
08.06.2018 16:36 26,0 C 53 % 1012,8 hPa 0,0 l/m 9,8 km/h (2 Bft) N-NW 333 3 min 443 W/m 15,7 C 25,3 C 19,3 km/h (3 Bft)
08.06.2018 16:39 25,8 C 52 % 1012,8 hPa 0,0 l/m 9,4 km/h (2 Bft) N-NW 329 0 min 241 W/m 15,2 C 25,2 C 16,1 km/h (3 Bft)
08.06.2018 16:42 25,4 C 53 % 1012,7 hPa 0,0 l/m 12,2 km/h (2 Bft) NW 319 0 min 232 W/m 15,1 C 24,2 C 20,9 km/h (4 Bft)
08.06.2018 16:45 25,2 C 54 % 1012,7 hPa 0,0 l/m 9,8 km/h (2 Bft) N 360 0 min 234 W/m 15,2 C 24,4 C 16,1 km/h (3 Bft)
08.06.2018 16:48 24,8 C 55 % 1012,7 hPa 0,0 l/m 10,5 km/h (2 Bft) N 5 0 min 202 W/m 15,1 C 23,8 C 19,3 km/h (3 Bft)
08.06.2018 16:51 24,6 C 56 % 1012,8 hPa 0,0 l/m 11,0 km/h (2 Bft) N 5 0 min 192 W/m 15,2 C 23,5 C 19,3 km/h (3 Bft)
08.06.2018 16:54 24,4 C 56 % 1012,7 hPa 0,0 l/m 11,7 km/h (2 Bft) NW 317 0 min 186 W/m 15,0 C 23,2 C 19,3 km/h (3 Bft)
08.06.2018 16:57 24,3 C 56 % 1012,7 hPa 0,0 l/m 8,5 km/h (2 Bft) N 360 0 min 186 W/m 14,9 C 23,7 C 14,5 km/h (3 Bft)
08.06.2018 17:00 24,3 C 56 % 1012,7 hPa 0,0 l/m 8,5 km/h (2 Bft) NW 324 0 min 195 W/m 14,9 C 23,7 C 16,1 km/h (3 Bft)
08.06.2018 17:03 24,1 C 57 % 1012,7 hPa 0,0 l/m 11,4 km/h (2 Bft) NW 312 0 min 202 W/m 15,0 C 22,9 C 19,3 km/h (3 Bft)
08.06.2018 17:06 24,1 C 59 % 1012,6 hPa 0,0 l/m 9,1 km/h (2 Bft) N 360 0 min 221 W/m 15,6 C 23,4 C 17,7 km/h (3 Bft)
08.06.2018 17:09 23,9 C 58 % 1012,6 hPa 0,0 l/m 10,7 km/h (2 Bft) NW 306 0 min 234 W/m 15,1 C 22,8 C 19,3 km/h (3 Bft)
08.06.2018 17:12 24,1 C 57 % 1012,6 hPa 0,0 l/m 10,4 km/h (2 Bft) N-NW 330 0 min 241 W/m 15,0 C 23,1 C 19,3 km/h (3 Bft)
08.06.2018 17:15 24,1 C 58 % 1012,6 hPa 0,0 l/m 11,0 km/h (2 Bft) NW 319 0 min 241 W/m 15,3 C 23,0 C 19,3 km/h (3 Bft)
08.06.2018 17:18 24,1 C 59 % 1012,6 hPa 0,0 l/m 11,4 km/h (2 Bft) N-NO 26 0 min 232 W/m 15,6 C 22,9 C 20,9 km/h (4 Bft)
08.06.2018 17:21 23,9 C 60 % 1012,7 hPa 0,0 l/m 8,8 km/h (2 Bft) N 355 0 min 227 W/m 15,7 C 23,2 C 17,7 km/h (3 Bft)
08.06.2018 17:24 23,8 C 60 % 1012,6 hPa 0,0 l/m 11,2 km/h (2 Bft) NW 315 0 min 223 W/m 15,6 C 22,6 C 19,3 km/h (3 Bft)
08.06.2018 17:27 23,8 C 61 % 1012,5 hPa 0,0 l/m 12,3 km/h (2 Bft) N-NW 331 0 min 227 W/m 15,8 C 22,3 C 19,3 km/h (3 Bft)
08.06.2018 17:30 23,8 C 60 % 1012,5 hPa 0,0 l/m 12,3 km/h (2 Bft) NW 314 0 min 227 W/m 15,6 C 22,3 C 22,5 km/h (4 Bft)
08.06.2018 17:33 23,7 C 60 % 1012,6 hPa 0,0 l/m 11,7 km/h (2 Bft) N-NW 338 0 min 223 W/m 15,5 C 22,4 C 19,3 km/h (3 Bft)
08.06.2018 17:36 23,8 C 61 % 1012,6 hPa 0,0 l/m 10,8 km/h (2 Bft) N 355 0 min 207 W/m 15,8 C 22,7 C 20,9 km/h (4 Bft)
08.06.2018 17:39 23,6 C 59 % 1012,6 hPa 0,0 l/m 12,0 km/h (2 Bft) N 360 0 min 199 W/m 15,1 C 22,2 C 19,3 km/h (3 Bft)
08.06.2018 17:42 23,5 C 61 % 1012,5 hPa 0,0 l/m 10,9 km/h (2 Bft) N-NW 329 0 min 195 W/m 15,5 C 22,3 C 19,3 km/h (3 Bft)
08.06.2018 17:45 23,4 C 62 % 1012,6 hPa 0,0 l/m 11,3 km/h (2 Bft) NW 309 0 min 195 W/m 15,7 C 22,1 C 20,9 km/h (4 Bft)
08.06.2018 17:48 23,3 C 63 % 1012,5 hPa 0,0 l/m 11,7 km/h (2 Bft) NW 323 0 min 234 W/m 15,9 C 21,9 C 20,9 km/h (4 Bft)
08.06.2018 17:51 23,3 C 63 % 1012,6 hPa 0,0 l/m 13,1 km/h (3 Bft) NW 311 0 min 257 W/m 15,9 C 21,6 C 25,7 km/h (4 Bft)
08.06.2018 17:54 23,4 C 63 % 1012,5 hPa 0,0 l/m 9,6 km/h (2 Bft) N-NW 333 0 min 243 W/m 15,9 C 22,5 C 19,3 km/h (3 Bft)
08.06.2018 17:57 23,4 C 64 % 1012,5 hPa 0,0 l/m 10,0 km/h (2 Bft) NW 306 3 min 294 W/m 16,2 C 22,4 C 19,3 km/h (3 Bft)
08.06.2018 18:00 23,4 C 64 % 1012,5 hPa 0,0 l/m 13,3 km/h (3 Bft) N-NW 335 3 min 367 W/m 16,2 C 21,7 C 19,3 km/h (3 Bft)
08.06.2018 18:03 23,4 C 64 % 1012,5 hPa 0,0 l/m 12,3 km/h (2 Bft) NW 311 3 min 376 W/m 16,2 C 21,9 C 20,9 km/h (4 Bft)
08.06.2018 18:06 23,7 C 64 % 1012,4 hPa 0,0 l/m 10,4 km/h (2 Bft) N-NW 331 3 min 415 W/m 16,5 C 22,6 C 17,7 km/h (3 Bft)
08.06.2018 18:09 23,9 C 63 % 1012,5 hPa 0,0 l/m 13,2 km/h (3 Bft) N-NW 331 3 min 418 W/m 16,4 C 22,3 C 27,4 km/h (5 Bft)
08.06.2018 18:12 23,9 C 64 % 1012,5 hPa 0,0 l/m 10,3 km/h (2 Bft) NW 321 3 min 353 W/m 16,7 C 22,9 C 20,9 km/h (4 Bft)
08.06.2018 18:15 23,9 C 64 % 1012,4 hPa 0,0 l/m 14,8 km/h (3 Bft) NO 35 3 min 292 W/m 16,7 C 22,0 C 20,9 km/h (4 Bft)
08.06.2018 18:18 23,5 C 64 % 1012,4 hPa 0,0 l/m 13,9 km/h (3 Bft) N 10 3 min 285 W/m 16,3 C 21,7 C 20,9 km/h (4 Bft)
08.06.2018 18:21 23,4 C 65 % 1012,4 hPa 0,0 l/m 11,5 km/h (2 Bft) N-NW 342 0 min 241 W/m 16,4 C 22,1 C 19,3 km/h (3 Bft)
08.06.2018 18:24 23,4 C 65 % 1012,4 hPa 0,0 l/m 8,7 km/h (2 Bft) N-NW 327 0 min 197 W/m 16,4 C 22,7 C 22,5 km/h (4 Bft)
08.06.2018 18:27 23,3 C 66 % 1012,4 hPa 0,0 l/m 9,9 km/h (2 Bft) NW 326 0 min 207 W/m 16,6 C 22,3 C 14,5 km/h (3 Bft)
08.06.2018 18:30 23,2 C 67 % 1012,4 hPa 0,0 l/m 10,2 km/h (2 Bft) N-NW 347 0 min 213 W/m 16,7 C 22,1 C 19,3 km/h (3 Bft)
08.06.2018 18:33 23,2 C 68 % 1012,3 hPa 0,0 l/m 8,5 km/h (2 Bft) N 355 3 min 283 W/m 17,0 C 22,6 C 14,5 km/h (3 Bft)
08.06.2018 18:36 23,1 C 68 % 1012,3 hPa 0,0 l/m 7,6 km/h (2 Bft) N-NW 334 0 min 206 W/m 16,9 C 22,7 C 16,1 km/h (3 Bft)
08.06.2018 18:39 23,2 C 68 % 1012,2 hPa 0,0 l/m 12,1 km/h (2 Bft) N 360 0 min 130 W/m 17,0 C 21,7 C 19,3 km/h (3 Bft)
08.06.2018 18:42 23,2 C 68 % 1012,2 hPa 0,0 l/m 11,5 km/h (2 Bft) N-NW 338 0 min 125 W/m 17,0 C 21,8 C 20,9 km/h (4 Bft)
08.06.2018 18:45 23,2 C 69 % 1012,2 hPa 0,0 l/m 8,2 km/h (2 Bft) N-NW 328 0 min 123 W/m 17,2 C 22,7 C 19,3 km/h (3 Bft)
08.06.2018 18:48 23,2 C 69 % 1012,2 hPa 0,0 l/m 11,0 km/h (2 Bft) N 360 0 min 123 W/m 17,2 C 21,9 C 17,7 km/h (3 Bft)
08.06.2018 18:51 23,1 C 70 % 1012,2 hPa 0,0 l/m 10,3 km/h (2 Bft) NW 326 0 min 142 W/m 17,3 C 22,0 C 19,3 km/h (3 Bft)
08.06.2018 18:54 22,9 C 70 % 1012,2 hPa 0,0 l/m 10,2 km/h (2 Bft) N-NW 348 0 min 125 W/m 17,1 C 21,8 C 20,9 km/h (4 Bft)
08.06.2018 18:57 22,8 C 70 % 1012,2 hPa 0,0 l/m 10,9 km/h (2 Bft) N-NW 348 0 min 128 W/m 17,0 C 21,5 C 17,7 km/h (3 Bft)
08.06.2018 19:00 22,7 C 70 % 1012,2 hPa 0,0 l/m 10,3 km/h (2 Bft) N-NW 333 0 min 128 W/m 16,9 C 21,5 C 19,3 km/h (3 Bft)
08.06.2018 19:03 22,6 C 71 % 1012,2 hPa 0,0 l/m 5,5 km/h (2 Bft) N 5 0 min 128 W/m 17,1 C 22,6 C 12,9 km/h (3 Bft)
08.06.2018 19:06 22,6 C 71 % 1012,2 hPa 0,0 l/m 10,9 km/h (2 Bft) N-NO 25 0 min 130 W/m 17,1 C 21,3 C 17,7 km/h (3 Bft)
08.06.2018 19:09 22,6 C 71 % 1012,1 hPa 0,0 l/m 8,1 km/h (2 Bft) N-NW 330 0 min 123 W/m 17,1 C 22,1 C 16,1 km/h (3 Bft)
08.06.2018 19:12 22,5 C 71 % 1012,2 hPa 0,0 l/m 10,5 km/h (2 Bft) N-NW 338 0 min 120 W/m 17,0 C 21,3 C 17,7 km/h (3 Bft)
08.06.2018 19:15 22,4 C 72 % 1012,2 hPa 0,0 l/m 9,6 km/h (2 Bft) N-NW 348 0 min 107 W/m 17,1 C 21,4 C 17,7 km/h (3 Bft)
08.06.2018 19:18 22,4 C 71 % 1012,2 hPa 0,0 l/m 10,5 km/h (2 Bft) N-NW 340 0 min 100 W/m 16,9 C 21,2 C 19,3 km/h (3 Bft)
08.06.2018 19:21 22,3 C 71 % 1012,2 hPa 0,0 l/m 9,9 km/h (2 Bft) NW 312 0 min 95 W/m 16,8 C 21,2 C 17,7 km/h (3 Bft)
08.06.2018 19:24 22,2 C 72 % 1012,1 hPa 0,0 l/m 7,1 km/h (2 Bft) N-NW 329 0 min 91 W/m 16,9 C 22,0 C 14,5 km/h (3 Bft)
08.06.2018 19:27 22,2 C 72 % 1012,1 hPa 0,0 l/m 8,5 km/h (2 Bft) N-NW 344 0 min 90 W/m 16,9 C 21,5 C 14,5 km/h (3 Bft)
08.06.2018 19:30 22,2 C 71 % 1012,1 hPa 0,0 l/m 9,0 km/h (2 Bft) N-NW 340 0 min 88 W/m 16,7 C 21,4 C 14,5 km/h (3 Bft)
08.06.2018 19:33 22,2 C 71 % 1012,2 hPa 0,0 l/m 10,5 km/h (2 Bft) N-NW 332 0 min 86 W/m 16,7 C 20,9 C 17,7 km/h (3 Bft)
08.06.2018 19:36 22,2 C 72 % 1012,2 hPa 0,0 l/m 8,5 km/h (2 Bft) N-NW 346 0 min 84 W/m 16,9 C 21,5 C 14,5 km/h (3 Bft)
08.06.2018 19:39 22,1 C 72 % 1012,2 hPa 0,0 l/m 9,3 km/h (2 Bft) NW 319 0 min 81 W/m 16,8 C 21,2 C 19,3 km/h (3 Bft)
08.06.2018 19:42 22,0 C 72 % 1012,2 hPa 0,0 l/m 9,9 km/h (2 Bft) N-NW 331 0 min 79 W/m 16,7 C 20,9 C 16,1 km/h (3 Bft)
08.06.2018 19:45 21,9 C 72 % 1012,2 hPa 0,0 l/m 8,9 km/h (2 Bft) N-NW 329 0 min 74 W/m 16,6 C 21,1 C 16,1 km/h (3 Bft)
08.06.2018 19:48 21,8 C 72 % 1012,3 hPa 0,0 l/m 11,7 km/h (2 Bft) N-NW 336 0 min 70 W/m 16,5 C 20,2 C 17,7 km/h (3 Bft)
08.06.2018 19:51 21,8 C 72 % 1012,3 hPa 0,0 l/m 7,9 km/h (2 Bft) N-NW 330 0 min 67 W/m 16,5 C 21,3 C 17,7 km/h (3 Bft)
08.06.2018 19:54 21,7 C 72 % 1012,3 hPa 0,0 l/m 8,4 km/h (2 Bft) N-NW 347 0 min 63 W/m 16,4 C 21,0 C 17,7 km/h (3 Bft)
08.06.2018 19:57 21,8 C 72 % 1012,3 hPa 0,0 l/m 8,0 km/h (2 Bft) N-NW 338 0 min 58 W/m 16,5 C 21,2 C 12,9 km/h (3 Bft)
08.06.2018 20:00 21,7 C 71 % 1012,3 hPa 0,0 l/m 9,7 km/h (2 Bft) N 5 0 min 56 W/m 16,2 C 20,6 C 22,5 km/h (4 Bft)
08.06.2018 20:03 21,7 C 71 % 1012,3 hPa 0,0 l/m 9,5 km/h (2 Bft) NW 314 0 min 53 W/m 16,2 C 20,7 C 19,3 km/h (3 Bft)
08.06.2018 20:06 21,6 C 71 % 1012,3 hPa 0,0 l/m 8,6 km/h (2 Bft) N-NW 344 0 min 51 W/m 16,1 C 20,8 C 16,1 km/h (3 Bft)
08.06.2018 20:09 21,6 C 72 % 1012,2 hPa 0,0 l/m 9,1 km/h (2 Bft) N-NW 343 0 min 49 W/m 16,3 C 20,7 C 20,9 km/h (4 Bft)
08.06.2018 20:12 21,6 C 72 % 1012,2 hPa 0,0 l/m 9,3 km/h (2 Bft) N-NW 337 0 min 49 W/m 16,3 C 20,6 C 17,7 km/h (3 Bft)
08.06.2018 20:15 21,6 C 72 % 1012,2 hPa 0,0 l/m 9,1 km/h (2 Bft) N 5 0 min 49 W/m 16,3 C 20,7 C 17,7 km/h (3 Bft)
08.06.2018 20:18 21,6 C 73 % 1012,3 hPa 0,0 l/m 9,6 km/h (2 Bft) N-NO 19 0 min 47 W/m 16,5 C 20,5 C 17,7 km/h (3 Bft)
08.06.2018 20:21 21,5 C 73 % 1012,3 hPa 0,0 l/m 10,4 km/h (2 Bft) NW 318 0 min 47 W/m 16,4 C 20,2 C 22,5 km/h (4 Bft)
08.06.2018 20:24 21,4 C 74 % 1012,2 hPa 0,0 l/m 8,7 km/h (2 Bft) N-NW 342 0 min 46 W/m 16,6 C 20,6 C 14,5 km/h (3 Bft)
08.06.2018 20:27 21,4 C 74 % 1012,3 hPa 0,0 l/m 8,8 km/h (2 Bft) N 355 0 min 42 W/m 16,6 C 20,6 C 20,9 km/h (4 Bft)
08.06.2018 20:30 21,4 C 74 % 1012,3 hPa 0,0 l/m 9,5 km/h (2 Bft) N-NW 337 0 min 40 W/m 16,6 C 20,3 C 19,3 km/h (3 Bft)
08.06.2018 20:33 21,3 C 74 % 1012,3 hPa 0,0 l/m 7,5 km/h (2 Bft) N-NW 346 0 min 39 W/m 16,5 C 20,9 C 14,5 km/h (3 Bft)
08.06.2018 20:36 21,3 C 75 % 1012,3 hPa 0,0 l/m 6,9 km/h (2 Bft) N-NW 338 0 min 35 W/m 16,7 C 21,1 C 12,9 km/h (3 Bft)
08.06.2018 20:39 21,3 C 75 % 1012,3 hPa 0,0 l/m 5,6 km/h (2 Bft) N-NW 329 0 min 33 W/m 16,7 C 21,3 C 12,9 km/h (3 Bft)
08.06.2018 20:42 21,2 C 75 % 1012,3 hPa 0,0 l/m 5,8 km/h (2 Bft) N 349 0 min 32 W/m 16,6 C 21,2 C 9,7 km/h (2 Bft)
08.06.2018 20:45 21,2 C 76 % 1012,3 hPa 0,0 l/m 7,8 km/h (2 Bft) N-NW 348 0 min 30 W/m 16,8 C 20,7 C 16,1 km/h (3 Bft)
08.06.2018 20:48 21,2 C 76 % 1012,3 hPa 0,0 l/m 6,0 km/h (2 Bft) N-NO 13 0 min 28 W/m 16,8 C 21,2 C 12,9 km/h (3 Bft)
08.06.2018 20:51 21,1 C 76 % 1012,3 hPa 0,0 l/m 7,4 km/h (2 Bft) N-NO 19 0 min 26 W/m 16,7 C 20,7 C 14,5 km/h (3 Bft)
08.06.2018 20:54 21,0 C 76 % 1012,4 hPa 0,0 l/m 4,8 km/h (1 Bft) N-NW 332 0 min 25 W/m 16,6 C 21,0 C 8,0 km/h (2 Bft)
08.06.2018 20:57 20,9 C 77 % 1012,5 hPa 0,0 l/m 3,4 km/h (1 Bft) N-NW 344 0 min 23 W/m 16,7 C 20,9 C 6,4 km/h (2 Bft)
08.06.2018 21:00 20,9 C 77 % 1012,5 hPa 0,0 l/m 7,0 km/h (2 Bft) N 9 0 min 21 W/m 16,7 C 20,7 C 16,1 km/h (3 Bft)
08.06.2018 21:03 20,9 C 77 % 1012,5 hPa 0,0 l/m 6,2 km/h (2 Bft) N 349 0 min 19 W/m 16,7 C 20,9 C 17,7 km/h (3 Bft)
08.06.2018 21:06 20,9 C 78 % 1012,6 hPa 0,0 l/m 7,3 km/h (2 Bft) NW 321 0 min 18 W/m 16,9 C 20,6 C 14,5 km/h (3 Bft)
08.06.2018 21:09 20,9 C 78 % 1012,5 hPa 0,0 l/m 6,9 km/h (2 Bft) N-NW 327 0 min 16 W/m 16,9 C 20,7 C 12,9 km/h (3 Bft)
08.06.2018 21:12 20,9 C 77 % 1012,6 hPa 0,0 l/m 5,7 km/h (2 Bft) N-NW 344 0 min 14 W/m 16,7 C 20,9 C 14,5 km/h (3 Bft)
08.06.2018 21:15 20,9 C 77 % 1012,6 hPa 0,0 l/m 6,3 km/h (2 Bft) N-NW 339 0 min 12 W/m 16,7 C 20,9 C 9,7 km/h (2 Bft)
08.06.2018 21:18 20,9 C 78 % 1012,5 hPa 0,0 l/m 5,3 km/h (1 Bft) N-NW 328 0 min 12 W/m 16,9 C 20,9 C 9,7 km/h (2 Bft)
08.06.2018 21:21 20,8 C 78 % 1012,5 hPa 0,0 l/m 5,8 km/h (2 Bft) N-NW 333 0 min 11 W/m 16,8 C 20,8 C 9,7 km/h (2 Bft)
08.06.2018 21:24 20,8 C 78 % 1012,6 hPa 0,0 l/m 6,5 km/h (2 Bft) N-NW 330 0 min 11 W/m 16,8 C 20,8 C 16,1 km/h (3 Bft)
08.06.2018 21:27 20,9 C 78 % 1012,6 hPa 0,0 l/m 6,7 km/h (2 Bft) N-NW 331 0 min 9 W/m 16,9 C 20,8 C 16,1 km/h (3 Bft)
08.06.2018 21:30 20,9 C 78 % 1012,6 hPa 0,0 l/m 8,1 km/h (2 Bft) NW 309 0 min 7 W/m 16,9 C 20,3 C 12,9 km/h (3 Bft)
08.06.2018 21:33 20,8 C 78 % 1012,6 hPa 0,0 l/m 6,7 km/h (2 Bft) N-NW 327 0 min 7 W/m 16,8 C 20,7 C 9,7 km/h (2 Bft)
08.06.2018 21:36 20,8 C 78 % 1012,7 hPa 0,0 l/m 6,7 km/h (2 Bft) N 360 0 min 7 W/m 16,8 C 20,7 C 12,9 km/h (3 Bft)
08.06.2018 21:39 20,7 C 79 % 1012,7 hPa 0,0 l/m 5,3 km/h (1 Bft) NW 325 0 min 7 W/m 16,9 C 20,7 C 9,7 km/h (2 Bft)
08.06.2018 21:42 20,7 C 79 % 1012,7 hPa 0,0 l/m 7,3 km/h (2 Bft) NW 319 0 min 5 W/m 16,9 C 20,4 C 14,5 km/h (3 Bft)
08.06.2018 21:45 20,7 C 80 % 1012,7 hPa 0,0 l/m 6,9 km/h (2 Bft) N-NW 344 0 min 5 W/m 17,1 C 20,5 C 14,5 km/h (3 Bft)
08.06.2018 21:48 20,6 C 80 % 1012,7 hPa 0,0 l/m 6,1 km/h (2 Bft) N 355 0 min 0 W/m 17,0 C 20,6 C 12,9 km/h (3 Bft)
08.06.2018 21:51 20,6 C 80 % 1012,7 hPa 0,0 l/m 4,9 km/h (1 Bft) N 355 0 min 0 W/m 17,0 C 20,6 C 14,5 km/h (3 Bft)
08.06.2018 21:54 20,5 C 80 % 1012,8 hPa 0,0 l/m 5,8 km/h (2 Bft) N 355 0 min 0 W/m 16,9 C 20,5 C 16,1 km/h (3 Bft)
08.06.2018 21:57 20,4 C 80 % 1012,7 hPa 0,0 l/m 6,8 km/h (2 Bft) NW 319 0 min 0 W/m 16,8 C 20,2 C 14,5 km/h (3 Bft)
08.06.2018 22:00 20,4 C 80 % 1012,8 hPa 0,0 l/m 6,0 km/h (2 Bft) N-NW 329 0 min 0 W/m 16,8 C 20,4 C 12,9 km/h (3 Bft)
08.06.2018 22:03 20,4 C 81 % 1012,8 hPa 0,0 l/m 8,9 km/h (2 Bft) N-NO 17 0 min 0 W/m 17,0 C 19,4 C 16,1 km/h (3 Bft)
08.06.2018 22:06 20,5 C 80 % 1012,8 hPa 0,0 l/m 7,4 km/h (2 Bft) N-NO 17 0 min 0 W/m 16,9 C 20,1 C 19,3 km/h (3 Bft)
08.06.2018 22:09 20,5 C 81 % 1012,8 hPa 0,0 l/m 6,6 km/h (2 Bft) NW 323 0 min 0 W/m 17,1 C 20,4 C 12,9 km/h (3 Bft)
08.06.2018 22:12 20,4 C 81 % 1012,8 hPa 0,0 l/m 6,7 km/h (2 Bft) N-NW 344 0 min 0 W/m 17,0 C 20,3 C 14,5 km/h (3 Bft)
08.06.2018 22:15 20,4 C 81 % 1012,7 hPa 0,0 l/m 8,1 km/h (2 Bft) N-NW 342 0 min 0 W/m 17,0 C 19,7 C 14,5 km/h (3 Bft)
08.06.2018 22:18 20,4 C 81 % 1012,7 hPa 0,0 l/m 6,2 km/h (2 Bft) N 360 0 min 0 W/m 17,0 C 20,4 C 12,9 km/h (3 Bft)
08.06.2018 22:21 20,4 C 81 % 1012,7 hPa 0,0 l/m 7,9 km/h (2 Bft) N 350 0 min 0 W/m 17,0 C 19,8 C 16,1 km/h (3 Bft)
08.06.2018 22:24 20,4 C 81 % 1012,8 hPa 0,0 l/m 7,8 km/h (2 Bft) N 355 0 min 0 W/m 17,0 C 19,8 C 14,5 km/h (3 Bft)
08.06.2018 22:27 20,5 C 82 % 1012,7 hPa 0,0 l/m 7,2 km/h (2 Bft) N-NW 345 0 min 0 W/m 17,3 C 20,2 C 12,9 km/h (3 Bft)
08.06.2018 22:30 20,5 C 82 % 1012,7 hPa 0,0 l/m 7,4 km/h (2 Bft) N 350 0 min 0 W/m 17,3 C 20,1 C 14,5 km/h (3 Bft)
08.06.2018 22:33 20,5 C 82 % 1012,6 hPa 0,0 l/m 7,3 km/h (2 Bft) N-NW 342 0 min 0 W/m 17,3 C 20,1 C 16,1 km/h (3 Bft)
08.06.2018 22:36 20,4 C 82 % 1012,6 hPa 0,0 l/m 5,4 km/h (2 Bft) NW 325 0 min 0 W/m 17,2 C 20,4 C 16,1 km/h (3 Bft)
08.06.2018 22:39 20,3 C 82 % 1012,6 hPa 0,0 l/m 4,8 km/h (1 Bft) N 355 0 min 0 W/m 17,1 C 20,3 C 12,9 km/h (3 Bft)
08.06.2018 22:42 20,2 C 83 % 1012,6 hPa 0,0 l/m 5,7 km/h (2 Bft) N 9 0 min 0 W/m 17,2 C 20,2 C 12,9 km/h (3 Bft)
08.06.2018 22:45 20,2 C 84 % 1012,6 hPa 0,0 l/m 4,1 km/h (1 Bft) NW 319 0 min 0 W/m 17,4 C 20,2 C 8,0 km/h (2 Bft)
08.06.2018 22:48 20,2 C 84 % 1012,6 hPa 0,0 l/m 5,8 km/h (2 Bft) NW 321 0 min 0 W/m 17,4 C 20,2 C 12,9 km/h (3 Bft)
08.06.2018 22:51 20,2 C 85 % 1012,6 hPa 0,0 l/m 4,2 km/h (1 Bft) NW 324 0 min 0 W/m 17,6 C 20,2 C 12,9 km/h (3 Bft)
08.06.2018 22:54 20,2 C 85 % 1012,6 hPa 0,0 l/m 3,2 km/h (1 Bft) N-NW 341 0 min 0 W/m 17,6 C 20,2 C 6,4 km/h (2 Bft)
08.06.2018 22:57 20,1 C 85 % 1012,6 hPa 0,0 l/m 3,5 km/h (1 Bft) N-NW 344 0 min 0 W/m 17,5 C 20,1 C 6,4 km/h (2 Bft)
08.06.2018 23:00 20,1 C 86 % 1012,6 hPa 0,0 l/m 5,1 km/h (1 Bft) NW 323 0 min 0 W/m 17,7 C 20,1 C 9,7 km/h (2 Bft)
08.06.2018 23:03 20,1 C 86 % 1012,6 hPa 0,0 l/m 3,1 km/h (1 Bft) NW 323 0 min 0 W/m 17,7 C 20,1 C 6,4 km/h (2 Bft)
08.06.2018 23:06 20,1 C 86 % 1012,6 hPa 0,0 l/m 3,7 km/h (1 Bft) N 5 0 min 0 W/m 17,7 C 20,1 C 8,0 km/h (2 Bft)
08.06.2018 23:09 20,1 C 86 % 1012,6 hPa 0,0 l/m 5,4 km/h (2 Bft) N-NO 22 0 min 0 W/m 17,7 C 20,1 C 11,3 km/h (2 Bft)
08.06.2018 23:12 20,0 C 85 % 1012,5 hPa 0,0 l/m 4,6 km/h (1 Bft) N-NW 333 0 min 0 W/m 17,4 C 20,0 C 9,7 km/h (2 Bft)
08.06.2018 23:15 20,1 C 85 % 1012,5 hPa 0,0 l/m 5,3 km/h (1 Bft) N-NW 338 0 min 0 W/m 17,5 C 20,1 C 9,7 km/h (2 Bft)
08.06.2018 23:18 20,1 C 84 % 1012,5 hPa 0,0 l/m 5,8 km/h (2 Bft) N-NW 343 0 min 0 W/m 17,3 C 20,1 C 11,3 km/h (2 Bft)
08.06.2018 23:21 20,2 C 83 % 1012,5 hPa 0,0 l/m 3,8 km/h (1 Bft) NO 36 0 min 0 W/m 17,2 C 20,2 C 8,0 km/h (2 Bft)
08.06.2018 23:24 20,2 C 83 % 1012,6 hPa 0,0 l/m 3,3 km/h (1 Bft) N 360 0 min 0 W/m 17,2 C 20,2 C 9,7 km/h (2 Bft)
08.06.2018 23:27 20,1 C 82 % 1012,5 hPa 0,0 l/m 2,6 km/h (1 Bft) NO 34 0 min 0 W/m 16,9 C 20,1 C 9,7 km/h (2 Bft)
08.06.2018 23:30 20,1 C 82 % 1012,6 hPa 0,0 l/m 4,0 km/h (1 Bft) N-NW 333 0 min 0 W/m 16,9 C 20,1 C 8,0 km/h (2 Bft)
08.06.2018 23:33 20,1 C 82 % 1012,5 hPa 0,0 l/m 4,4 km/h (1 Bft) N-NW 342 0 min 0 W/m 16,9 C 20,1 C 11,3 km/h (2 Bft)
08.06.2018 23:36 20,1 C 82 % 1012,6 hPa 0,0 l/m 3,1 km/h (1 Bft) N-NW 344 0 min 0 W/m 16,9 C 20,1 C 6,4 km/h (2 Bft)
08.06.2018 23:39 20,1 C 83 % 1012,6 hPa 0,0 l/m 3,4 km/h (1 Bft) N 5 0 min 0 W/m 17,1 C 20,1 C 8,0 km/h (2 Bft)
08.06.2018 23:42 20,1 C 83 % 1012,6 hPa 0,0 l/m 3,4 km/h (1 Bft) N 9 0 min 0 W/m 17,1 C 20,1 C 6,4 km/h (2 Bft)
08.06.2018 23:45 20,1 C 83 % 1012,6 hPa 0,0 l/m 3,6 km/h (1 Bft) N 360 0 min 0 W/m 17,1 C 20,1 C 6,4 km/h (2 Bft)
08.06.2018 23:48 20,1 C 83 % 1012,6 hPa 0,0 l/m 3,6 km/h (1 Bft) N 360 0 min 0 W/m 17,1 C 20,1 C 8,0 km/h (2 Bft)
08.06.2018 23:51 20,1 C 83 % 1012,6 hPa 0,0 l/m 3,2 km/h (1 Bft) N 360 0 min 0 W/m 17,1 C 20,1 C 4,8 km/h (1 Bft)
08.06.2018 23:54 20,0 C 83 % 1012,6 hPa 0,0 l/m 4,0 km/h (1 Bft) N 350 0 min 0 W/m 17,0 C 20,0 C 8,0 km/h (2 Bft)
08.06.2018 23:57 20,1 C 83 % 1012,6 hPa 0,0 l/m 3,7 km/h (1 Bft) N-NO 20 0 min 0 W/m 17,1 C 20,1 C 8,0 km/h (2 Bft)
_ Min-Zeit 05:00 13:24 19:09 - 00:03 - - - - 04:45 05:00 00:03
Minimum _ 14,9 C 45 % 1012,1 hPa - 0,0 km/h (0 Bft) - - - - 12,3 C 14,9 C 0,0 km/h (0 Bft)
_ Max-Zeit 13:24 05:48 09:45 00:00 18:15 - - 08:18 13:15 23:00 13:24 18:09
Maximum _ 27,9 C 88 % 1013,7 hPa 0,0 l/m 14,8 km/h
NO (3 Bft)
- - 3 min 900 W/m 17,7 C 27,9 C 27,4 km/h
NW (5 Bft)
Durchschnitt _ 21,1 C 71 % 1012,9 hPa #0,0 l/m 4,8 km/h (1 Bft) N-NW - #8:09 h 357 W/m 15,3 C 20,8 C 9,6 km/h (2 Bft)
2018 Cux-Wetter.de -Die Nutzung der Wetterdaten nur mit ausdrcklicher Genehmigung